Wetterdaten: Freitag, 17.07.2009
Datum Zeit Temp. Innen Temp. Aussen UV X Diff Temp. Feuchte Inne Feuchte Auss Sonnenschein Luftdruck Regen ab 0,1 Wind Sonnenschein Windben
17.07.2009 00:00 24,8 C 21,1 C 0,0 UV-I 0,0 C 53 % 63 % 0 % 1014,9 hPa 0,0 l/m 0,0 km/h (0 Bft) 0 min 0,0 km/h (0 Bft)
17.07.2009 00:02 24,8 C 21,1 C 0,0 UV-I 0,0 C 53 % 63 % 0 % 1014,9 hPa 0,0 l/m 0,0 km/h (0 Bft) 0 min 0,0 km/h (0 Bft)
17.07.2009 00:04 24,8 C 20,9 C 0,0 UV-I 0,0 C 53 % 63 % 0 % 1014,9 hPa 0,0 l/m 0,0 km/h (0 Bft) 0 min 0,0 km/h (0 Bft)
17.07.2009 00:06 24,7 C 20,9 C 0,0 UV-I 0,0 C 53 % 63 % 0 % 1014,9 hPa 0,0 l/m 0,0 km/h (0 Bft) 0 min 0,0 km/h (0 Bft)
17.07.2009 00:08 24,7 C 20,8 C 0,0 UV-I 0,0 C 53 % 64 % 0 % 1014,9 hPa 0,0 l/m 0,0 km/h (0 Bft) 0 min 0,0 km/h (0 Bft)
17.07.2009 00:10 24,7 C 20,9 C 0,0 UV-I 0,0 C 53 % 64 % 0 % 1014,9 hPa 0,0 l/m 0,0 km/h (0 Bft) 0 min 0,0 km/h (0 Bft)
17.07.2009 00:12 24,7 C 20,8 C 0,0 UV-I 0,0 C 53 % 64 % 0 % 1014,9 hPa 0,0 l/m 0,0 km/h (0 Bft) 0 min 0,0 km/h (0 Bft)
17.07.2009 00:14 24,7 C 20,7 C 0,0 UV-I 0,0 C 53 % 64 % 0 % 1014,9 hPa 0,0 l/m 0,0 km/h (0 Bft) 0 min 0,0 km/h (0 Bft)
17.07.2009 00:16 24,7 C 20,7 C 0,0 UV-I 0,0 C 53 % 64 % 0 % 1014,9 hPa 0,0 l/m 0,0 km/h (0 Bft) 0 min 0,0 km/h (0 Bft)
17.07.2009 00:18 24,7 C 20,6 C 0,0 UV-I 0,0 C 53 % 64 % 0 % 1014,6 hPa 0,0 l/m 0,0 km/h (0 Bft) 0 min 0,0 km/h (0 Bft)
17.07.2009 00:20 24,7 C 20,7 C 0,0 UV-I 0,0 C 53 % 64 % 0 % 1014,6 hPa 0,0 l/m 0,0 km/h (0 Bft) 0 min 0,0 km/h (0 Bft)
17.07.2009 00:22 24,6 C 20,7 C 0,0 UV-I 0,0 C 53 % 65 % 0 % 1014,6 hPa 0,0 l/m 0,0 km/h (0 Bft) 0 min 0,0 km/h (0 Bft)
17.07.2009 00:24 24,6 C 20,5 C 0,0 UV-I 0,0 C 53 % 65 % 0 % 1014,6 hPa 0,0 l/m 0,0 km/h (0 Bft) 0 min 0,0 km/h (0 Bft)
17.07.2009 00:26 24,6 C 20,5 C 0,0 UV-I 0,0 C 53 % 65 % 0 % 1014,6 hPa 0,0 l/m 0,0 km/h (0 Bft) 0 min 0,0 km/h (0 Bft)
17.07.2009 00:28 24,6 C 20,5 C 0,0 UV-I 0,0 C 53 % 65 % 0 % 1014,6 hPa 0,0 l/m 0,0 km/h (0 Bft) 0 min 0,0 km/h (0 Bft)
17.07.2009 00:30 24,6 C 20,4 C 0,0 UV-I 0,0 C 53 % 65 % 0 % 1014,6 hPa 0,0 l/m 0,0 km/h (0 Bft) 0 min 0,0 km/h (0 Bft)
17.07.2009 00:32 24,6 C 20,4 C 0,0 UV-I 0,0 C 53 % 65 % 0 % 1014,6 hPa 0,0 l/m 0,0 km/h (0 Bft) 0 min 0,0 km/h (0 Bft)
17.07.2009 00:34 24,6 C 20,5 C 0,0 UV-I 0,0 C 53 % 65 % 0 % 1014,6 hPa 0,0 l/m 0,0 km/h (0 Bft) 0 min 0,0 km/h (0 Bft)
17.07.2009 00:36 24,6 C 20,4 C 0,0 UV-I 0,0 C 53 % 65 % 0 % 1014,6 hPa 0,0 l/m 0,0 km/h (0 Bft) 0 min 0,0 km/h (0 Bft)
17.07.2009 00:38 24,6 C 20,4 C 0,0 UV-I 0,0 C 53 % 65 % 0 % 1014,5 hPa 0,0 l/m 0,0 km/h (0 Bft) 0 min 0,0 km/h (0 Bft)
17.07.2009 00:40 24,6 C 20,3 C 0,0 UV-I 0,0 C 54 % 65 % 0 % 1014,5 hPa 0,0 l/m 0,0 km/h (0 Bft) 0 min 0,0 km/h (0 Bft)
17.07.2009 00:42 24,6 C 20,3 C 0,0 UV-I 0,0 C 54 % 65 % 0 % 1014,5 hPa 0,0 l/m 0,0 km/h (0 Bft) 0 min 0,0 km/h (0 Bft)
17.07.2009 00:44 24,5 C 20,3 C 0,0 UV-I 0,0 C 54 % 65 % 0 % 1014,5 hPa 0,0 l/m 0,0 km/h (0 Bft) 0 min 0,0 km/h (0 Bft)
17.07.2009 00:46 24,5 C 20,3 C 0,0 UV-I 0,0 C 54 % 65 % 0 % 1014,5 hPa 0,0 l/m 0,0 km/h (0 Bft) 0 min 0,0 km/h (0 Bft)
17.07.2009 00:48 24,5 C 20,3 C 0,0 UV-I 0,0 C 54 % 65 % 0 % 1014,5 hPa 0,0 l/m 0,0 km/h (0 Bft) 0 min 0,0 km/h (0 Bft)
17.07.2009 00:50 24,5 C 20,3 C 0,0 UV-I 0,0 C 54 % 65 % 0 % 1014,5 hPa 0,0 l/m 0,0 km/h (0 Bft) 0 min 0,0 km/h (0 Bft)
17.07.2009 00:52 24,5 C 20,2 C 0,0 UV-I 0,0 C 54 % 65 % 0 % 1014,5 hPa 0,0 l/m 0,0 km/h (0 Bft) 0 min 0,0 km/h (0 Bft)
17.07.2009 00:54 24,5 C 20,2 C 0,0 UV-I 0,0 C 54 % 65 % 0 % 1014,5 hPa 0,0 l/m 0,0 km/h (0 Bft) 0 min 0,0 km/h (0 Bft)
17.07.2009 00:56 24,5 C 20,3 C 0,0 UV-I 0,0 C 54 % 65 % 0 % 1014,5 hPa 0,0 l/m 0,0 km/h (0 Bft) 0 min 0,0 km/h (0 Bft)
17.07.2009 00:58 24,5 C 20,3 C 0,0 UV-I 0,0 C 54 % 64 % 0 % 1014,2 hPa 0,0 l/m 0,0 km/h (0 Bft) 0 min 0,0 km/h (0 Bft)
17.07.2009 01:00 24,5 C 20,3 C 0,0 UV-I 0,0 C 54 % 65 % 0 % 1014,2 hPa 0,0 l/m 0,0 km/h (0 Bft) 0 min 0,0 km/h (0 Bft)
17.07.2009 01:02 24,5 C 20,3 C 0,0 UV-I 0,0 C 54 % 64 % 0 % 1014,2 hPa 0,0 l/m 0,0 km/h (0 Bft) 0 min 0,0 km/h (0 Bft)
17.07.2009 01:04 24,5 C 20,3 C 0,0 UV-I 0,0 C 54 % 64 % 0 % 1014,2 hPa 0,0 l/m 0,0 km/h (0 Bft) 0 min 0,0 km/h (0 Bft)
17.07.2009 01:06 24,5 C 20,2 C 0,0 UV-I 0,0 C 54 % 64 % 0 % 1014,2 hPa 0,0 l/m 0,0 km/h (0 Bft) 0 min 0,0 km/h (0 Bft)
17.07.2009 01:08 24,5 C 20,3 C 0,0 UV-I 0,0 C 54 % 64 % 0 % 1014,2 hPa 0,0 l/m 0,0 km/h (0 Bft) 0 min 0,0 km/h (0 Bft)
17.07.2009 01:10 24,4 C 20,3 C 0,0 UV-I 0,0 C 54 % 64 % 0 % 1014,2 hPa 0,0 l/m 0,0 km/h (0 Bft) 0 min 0,0 km/h (0 Bft)
17.07.2009 01:12 24,4 C 20,3 C 0,0 UV-I 0,0 C 54 % 64 % 0 % 1014,2 hPa 0,0 l/m 0,0 km/h (0 Bft) 0 min 3,6 km/h (1 Bft)
17.07.2009 01:16 24,4 C 20,3 C 0,0 UV-I 0,0 C 54 % 64 % 0 % 1014,2 hPa 0,0 l/m 0,0 km/h (0 Bft) 0 min 3,6 km/h (1 Bft)
17.07.2009 01:18 24,4 C 20,3 C 0,0 UV-I 0,0 C 54 % 64 % 0 % 1013,4 hPa 0,0 l/m 0,0 km/h (0 Bft) 0 min 0,0 km/h (0 Bft)
17.07.2009 01:20 24,4 C 20,3 C 0,0 UV-I 0,0 C 54 % 64 % 0 % 1013,4 hPa 0,0 l/m 0,0 km/h (0 Bft) 0 min 0,0 km/h (0 Bft)
17.07.2009 01:24 24,4 C 20,2 C 0,0 UV-I 0,0 C 54 % 65 % 0 % 1013,4 hPa 0,0 l/m 0,2 km/h (0 Bft) 0 min 0,0 km/h (0 Bft)
17.07.2009 01:26 24,4 C 20,2 C 0,0 UV-I 0,0 C 54 % 65 % 0 % 1013,4 hPa 0,0 l/m 0,5 km/h (0 Bft) 0 min 2,6 km/h (1 Bft)
17.07.2009 01:28 24,4 C 20,1 C 0,0 UV-I 0,0 C 54 % 65 % 0 % 1013,4 hPa 0,0 l/m 0,7 km/h (0 Bft) 0 min 2,6 km/h (1 Bft)
17.07.2009 01:30 24,4 C 20,1 C 0,0 UV-I 0,0 C 54 % 65 % 0 % 1013,4 hPa 0,0 l/m 0,7 km/h (0 Bft) 0 min 0,0 km/h (0 Bft)
17.07.2009 01:32 24,4 C 20,1 C 0,0 UV-I 0,0 C 54 % 65 % 0 % 1013,4 hPa 0,0 l/m 0,7 km/h (0 Bft) 0 min 0,0 km/h (0 Bft)
17.07.2009 01:34 24,4 C 20,1 C 0,0 UV-I 0,0 C 54 % 65 % 0 % 1013,4 hPa 0,0 l/m 0,5 km/h (0 Bft) 0 min 5,3 km/h (1 Bft)
17.07.2009 01:36 24,4 C 20,0 C 0,0 UV-I 0,0 C 54 % 64 % 0 % 1013,4 hPa 0,0 l/m 0,2 km/h (0 Bft) 0 min 0,0 km/h (0 Bft)
17.07.2009 01:38 24,4 C 20,0 C 0,0 UV-I 0,0 C 54 % 64 % 0 % 1013,2 hPa 0,0 l/m 0,2 km/h (0 Bft) 0 min 0,0 km/h (0 Bft)
17.07.2009 01:40 24,4 C 20,1 C 0,0 UV-I 0,0 C 54 % 65 % 0 % 1013,2 hPa 0,0 l/m 0,0 km/h (0 Bft) 0 min 0,0 km/h (0 Bft)
17.07.2009 01:42 24,4 C 20,1 C 0,0 UV-I 0,0 C 54 % 65 % 0 % 1013,2 hPa 0,0 l/m 0,0 km/h (0 Bft) 0 min 0,0 km/h (0 Bft)
17.07.2009 01:44 24,4 C 20,1 C 0,0 UV-I 0,0 C 54 % 65 % 0 % 1013,2 hPa 0,0 l/m 0,0 km/h (0 Bft) 0 min 0,0 km/h (0 Bft)
17.07.2009 01:46 24,4 C 20,1 C 0,0 UV-I 0,0 C 54 % 65 % 0 % 1013,2 hPa 0,0 l/m 0,0 km/h (0 Bft) 0 min 0,0 km/h (0 Bft)
17.07.2009 01:48 24,4 C 20,0 C 0,0 UV-I 0,0 C 54 % 65 % 0 % 1013,2 hPa 0,0 l/m 0,2 km/h (0 Bft) 0 min 2,9 km/h (1 Bft)
17.07.2009 01:50 24,4 C 20,0 C 0,0 UV-I 0,0 C 54 % 65 % 0 % 1013,2 hPa 0,0 l/m 0,2 km/h (0 Bft) 0 min 4,3 km/h (1 Bft)
17.07.2009 01:52 24,2 C 19,9 C 0,0 UV-I 0,0 C 54 % 65 % 0 % 1013,2 hPa 0,0 l/m 0,2 km/h (0 Bft) 0 min 0,0 km/h (0 Bft)
17.07.2009 01:54 24,4 C 19,9 C 0,0 UV-I 0,0 C 54 % 65 % 0 % 1013,2 hPa 0,0 l/m 0,2 km/h (0 Bft) 0 min 0,0 km/h (0 Bft)
17.07.2009 01:56 24,2 C 19,9 C 0,0 UV-I 0,0 C 54 % 65 % 0 % 1013,2 hPa 0,0 l/m 0,2 km/h (0 Bft) 0 min 0,0 km/h (0 Bft)
17.07.2009 01:58 24,2 C 19,9 C 0,0 UV-I 0,0 C 54 % 65 % 0 % 1012,9 hPa 0,0 l/m 0,2 km/h (0 Bft) 0 min 0,0 km/h (0 Bft)
17.07.2009 02:00 24,2 C 19,9 C 0,0 UV-I 0,0 C 54 % 66 % 0 % 1012,9 hPa 0,0 l/m 0,0 km/h (0 Bft) 0 min 0,0 km/h (0 Bft)
17.07.2009 02:02 24,3 C 19,9 C 0,0 UV-I 0,0 C 54 % 66 % 0 % 1012,9 hPa 0,0 l/m 0,0 km/h (0 Bft) 0 min 0,0 km/h (0 Bft)
17.07.2009 02:04 24,2 C 19,8 C 0,0 UV-I 0,0 C 54 % 66 % 0 % 1012,9 hPa 0,0 l/m 0,0 km/h (0 Bft) 0 min 0,0 km/h (0 Bft)
17.07.2009 02:06 24,3 C 19,9 C 0,0 UV-I 0,0 C 54 % 66 % 0 % 1012,9 hPa 0,0 l/m 0,0 km/h (0 Bft) 0 min 0,0 km/h (0 Bft)
17.07.2009 02:08 24,3 C 19,9 C 0,0 UV-I 0,0 C 54 % 66 % 0 % 1012,9 hPa 0,0 l/m 0,0 km/h (0 Bft) 0 min 0,0 km/h (0 Bft)
17.07.2009 02:10 24,3 C 19,8 C 0,0 UV-I 0,0 C 54 % 66 % 0 % 1012,9 hPa 0,0 l/m 0,0 km/h (0 Bft) 0 min 0,0 km/h (0 Bft)
17.07.2009 02:12 24,3 C 19,9 C 0,0 UV-I 0,0 C 54 % 66 % 0 % 1012,9 hPa 0,0 l/m 0,0 km/h (0 Bft) 0 min 0,0 km/h (0 Bft)
17.07.2009 02:14 24,3 C 19,8 C 0,0 UV-I 0,0 C 54 % 66 % 0 % 1012,9 hPa 0,0 l/m 0,0 km/h (0 Bft) 0 min 0,0 km/h (0 Bft)
17.07.2009 02:16 24,2 C 19,9 C 0,0 UV-I 0,0 C 54 % 67 % 0 % 1012,9 hPa 0,0 l/m 0,0 km/h (0 Bft) 0 min 0,0 km/h (0 Bft)
17.07.2009 02:18 24,2 C 19,9 C 0,0 UV-I 0,0 C 54 % 67 % 0 % 1012,5 hPa 0,0 l/m 0,0 km/h (0 Bft) 0 min 0,0 km/h (0 Bft)
17.07.2009 02:22 24,3 C 19,8 C 0,0 UV-I 0,0 C 54 % 67 % 0 % 1012,5 hPa 0,0 l/m 0,0 km/h (0 Bft) 0 min 0,0 km/h (0 Bft)
17.07.2009 02:24 24,3 C 19,8 C 0,0 UV-I 0,0 C 54 % 67 % 0 % 1012,5 hPa 0,0 l/m 0,0 km/h (0 Bft) 0 min 0,0 km/h (0 Bft)
17.07.2009 02:26 24,3 C 19,8 C 0,0 UV-I 0,0 C 54 % 67 % 0 % 1012,5 hPa 0,0 l/m 0,0 km/h (0 Bft) 0 min 0,0 km/h (0 Bft)
17.07.2009 02:28 24,2 C 19,8 C 0,0 UV-I 0,0 C 54 % 67 % 0 % 1012,5 hPa 0,0 l/m 0,2 km/h (0 Bft) 0 min 3,1 km/h (1 Bft)
17.07.2009 02:30 24,2 C 19,8 C 0,0 UV-I 0,0 C 54 % 67 % 0 % 1012,5 hPa 0,0 l/m 0,2 km/h (0 Bft) 0 min 0,0 km/h (0 Bft)
17.07.2009 02:32 24,2 C 19,9 C 0,0 UV-I 0,0 C 54 % 67 % 0 % 1012,5 hPa 0,0 l/m 0,5 km/h (0 Bft) 0 min 0,0 km/h (0 Bft)
17.07.2009 02:36 24,2 C 19,9 C 0,0 UV-I 0,0 C 54 % 67 % 0 % 1012,5 hPa 0,0 l/m 0,5 km/h (0 Bft) 0 min 5,8 km/h (2 Bft)
17.07.2009 02:38 24,2 C 19,9 C 0,0 UV-I 0,0 C 54 % 67 % 0 % 1012,1 hPa 0,0 l/m 1,2 km/h (1 Bft) 0 min 5,8 km/h (2 Bft)
17.07.2009 02:40 24,2 C 19,9 C 0,0 UV-I 0,0 C 54 % 67 % 0 % 1012,1 hPa 0,0 l/m 1,4 km/h (1 Bft) 0 min 2,4 km/h (1 Bft)
17.07.2009 02:42 24,2 C 19,9 C 0,0 UV-I 0,0 C 54 % 68 % 0 % 1012,1 hPa 0,0 l/m 1,2 km/h (1 Bft) 0 min 0,0 km/h (0 Bft)
17.07.2009 02:44 24,2 C 19,8 C 0,0 UV-I 0,0 C 54 % 68 % 0 % 1012,1 hPa 0,0 l/m 1,9 km/h (1 Bft) 0 min 7,2 km/h (2 Bft)
17.07.2009 02:46 24,2 C 19,9 C 0,0 UV-I 0,0 C 54 % 68 % 0 % 1012,1 hPa 0,0 l/m 2,4 km/h (1 Bft) 0 min 4,3 km/h (1 Bft)
17.07.2009 02:48 24,2 C 19,8 C 0,0 UV-I 0,0 C 54 % 68 % 0 % 1012,1 hPa 0,0 l/m 2,6 km/h (1 Bft) 0 min 4,6 km/h (1 Bft)
17.07.2009 02:50 24,2 C 19,7 C 0,0 UV-I 0,0 C 54 % 68 % 0 % 1012,1 hPa 0,0 l/m 2,6 km/h (1 Bft) 0 min 2,4 km/h (1 Bft)
17.07.2009 02:52 24,2 C 19,7 C 0,0 UV-I 0,0 C 54 % 68 % 0 % 1012,1 hPa 0,0 l/m 2,4 km/h (1 Bft) 0 min 0,0 km/h (0 Bft)
17.07.2009 02:54 24,2 C 19,7 C 0,0 UV-I 0,0 C 54 % 68 % 0 % 1012,1 hPa 0,0 l/m 1,7 km/h (1 Bft) 0 min 0,0 km/h (0 Bft)
17.07.2009 02:56 24,2 C 19,7 C 0,0 UV-I 0,0 C 54 % 68 % 0 % 1012,1 hPa 0,0 l/m 1,2 km/h (1 Bft) 0 min 0,0 km/h (0 Bft)
17.07.2009 02:58 24,2 C 19,6 C 0,0 UV-I 0,0 C 54 % 68 % 0 % 1012,2 hPa 0,0 l/m 0,7 km/h (0 Bft) 0 min 0,0 km/h (0 Bft)
17.07.2009 03:00 24,2 C 19,6 C 0,0 UV-I 0,0 C 54 % 69 % 0 % 1012,2 hPa 0,0 l/m 0,2 km/h (0 Bft) 0 min 0,0 km/h (0 Bft)
17.07.2009 03:02 24,2 C 19,6 C 0,0 UV-I 0,0 C 54 % 69 % 0 % 1012,2 hPa 0,0 l/m 0,2 km/h (0 Bft) 0 min 0,0 km/h (0 Bft)
17.07.2009 03:04 24,2 C 19,6 C 0,0 UV-I 0,0 C 55 % 69 % 0 % 1012,2 hPa 0,0 l/m 0,2 km/h (0 Bft) 0 min 0,0 km/h (0 Bft)
17.07.2009 03:06 24,2 C 19,6 C 0,0 UV-I 0,0 C 54 % 69 % 0 % 1012,2 hPa 0,0 l/m 0,2 km/h (0 Bft) 0 min 0,0 km/h (0 Bft)
17.07.2009 03:08 24,2 C 19,6 C 0,0 UV-I 0,0 C 55 % 69 % 0 % 1012,2 hPa 0,0 l/m 0,2 km/h (0 Bft) 0 min 0,0 km/h (0 Bft)
17.07.2009 03:10 24,2 C 19,6 C 0,0 UV-I 0,0 C 55 % 69 % 0 % 1012,2 hPa 0,0 l/m 0,2 km/h (0 Bft) 0 min 2,4 km/h (1 Bft)
17.07.2009 03:16 24,2 C 19,6 C 0,0 UV-I 0,0 C 55 % 69 % 0 % 1012,2 hPa 0,0 l/m 0,5 km/h (0 Bft) 0 min 3,6 km/h (1 Bft)
17.07.2009 03:18 24,2 C 19,6 C 0,0 UV-I 0,0 C 55 % 69 % 0 % 1012,2 hPa 0,0 l/m 0,5 km/h (0 Bft) 0 min 3,6 km/h (1 Bft)
17.07.2009 03:20 24,2 C 19,6 C 0,0 UV-I 0,0 C 55 % 69 % 0 % 1012,2 hPa 0,0 l/m 0,5 km/h (0 Bft) 0 min 5,8 km/h (2 Bft)
17.07.2009 03:24 24,2 C 19,6 C 0,0 UV-I 0,0 C 55 % 69 % 0 % 1012,2 hPa 0,0 l/m 0,5 km/h (0 Bft) 0 min 0,0 km/h (0 Bft)
17.07.2009 03:26 24,1 C 19,6 C 0,0 UV-I 0,0 C 55 % 69 % 0 % 1012,2 hPa 0,0 l/m 0,5 km/h (0 Bft) 0 min 0,0 km/h (0 Bft)
17.07.2009 03:28 24,1 C 19,6 C 0,0 UV-I 0,0 C 55 % 69 % 0 % 1012,2 hPa 0,0 l/m 0,5 km/h (0 Bft) 0 min 0,0 km/h (0 Bft)
17.07.2009 03:30 24,1 C 19,6 C 0,0 UV-I 0,0 C 55 % 69 % 0 % 1012,2 hPa 0,0 l/m 0,2 km/h (0 Bft) 0 min 3,8 km/h (1 Bft)
17.07.2009 03:32 24,1 C 19,6 C 0,0 UV-I 0,0 C 55 % 69 % 0 % 1012,2 hPa 0,0 l/m 0,2 km/h (0 Bft) 0 min 3,1 km/h (1 Bft)
17.07.2009 03:36 24,1 C 19,6 C 0,0 UV-I 0,0 C 55 % 69 % 0 % 1012,2 hPa 0,0 l/m 0,5 km/h (0 Bft) 0 min 0,0 km/h (0 Bft)
17.07.2009 03:38 24,1 C 19,6 C 0,0 UV-I 0,0 C 55 % 69 % 0 % 1011,9 hPa 0,0 l/m 0,5 km/h (0 Bft) 0 min 0,0 km/h (0 Bft)
17.07.2009 03:40 24,1 C 19,6 C 0,0 UV-I 0,0 C 55 % 69 % 0 % 1011,9 hPa 0,0 l/m 0,5 km/h (0 Bft) 0 min 2,6 km/h (1 Bft)
17.07.2009 03:42 24,1 C 19,7 C 0,0 UV-I 0,0 C 55 % 69 % 0 % 1011,9 hPa 0,0 l/m 0,5 km/h (0 Bft) 0 min 2,6 km/h (1 Bft)
17.07.2009 03:44 24,1 C 19,7 C 0,0 UV-I 0,0 C 55 % 69 % 0 % 1011,9 hPa 0,0 l/m 0,5 km/h (0 Bft) 0 min 0,0 km/h (0 Bft)
17.07.2009 03:46 24,1 C 19,7 C 0,0 UV-I 0,0 C 55 % 69 % 0 % 1011,9 hPa 0,0 l/m 0,2 km/h (0 Bft) 0 min 0,0 km/h (0 Bft)
17.07.2009 03:48 24,1 C 19,7 C 0,0 UV-I 0,0 C 55 % 69 % 0 % 1011,9 hPa 0,0 l/m 1,0 km/h (0 Bft) 0 min 4,1 km/h (1 Bft)
17.07.2009 03:50 24,1 C 19,7 C 0,0 UV-I 0,0 C 55 % 69 % 0 % 1011,9 hPa 0,0 l/m 1,0 km/h (0 Bft) 0 min 4,1 km/h (1 Bft)
17.07.2009 03:52 24,1 C 19,7 C 0,0 UV-I 0,0 C 55 % 69 % 0 % 1011,9 hPa 0,0 l/m 1,2 km/h (1 Bft) 0 min 5,8 km/h (2 Bft)
17.07.2009 03:54 24,1 C 19,7 C 0,0 UV-I 0,0 C 55 % 69 % 0 % 1011,9 hPa 0,0 l/m 1,0 km/h (0 Bft) 0 min 0,0 km/h (0 Bft)
17.07.2009 03:56 24,1 C 19,8 C 0,0 UV-I 0,0 C 55 % 69 % 0 % 1011,9 hPa 0,0 l/m 1,4 km/h (1 Bft) 0 min 4,8 km/h (1 Bft)
17.07.2009 03:58 24,1 C 19,8 C 0,0 UV-I 0,0 C 55 % 69 % 0 % 1011,4 hPa 0,0 l/m 1,7 km/h (1 Bft) 0 min 7,2 km/h (2 Bft)
17.07.2009 04:02 24,1 C 19,9 C 0,0 UV-I 0,0 C 55 % 69 % 0 % 1011,4 hPa 0,0 l/m 1,4 km/h (1 Bft) 0 min 2,9 km/h (1 Bft)
17.07.2009 04:04 24,0 C 19,8 C 0,0 UV-I 0,0 C 55 % 69 % 0 % 1011,4 hPa 0,0 l/m 1,2 km/h (1 Bft) 0 min 4,8 km/h (1 Bft)
17.07.2009 04:06 24,1 C 19,9 C 0,0 UV-I 0,0 C 55 % 69 % 0 % 1011,4 hPa 0,0 l/m 1,4 km/h (1 Bft) 0 min 6,0 km/h (2 Bft)
17.07.2009 04:08 24,0 C 19,9 C 0,0 UV-I 0,0 C 55 % 69 % 0 % 1011,4 hPa 0,0 l/m 1,2 km/h (1 Bft) 0 min 0,0 km/h (0 Bft)
17.07.2009 04:10 24,0 C 19,9 C 0,0 UV-I 0,0 C 55 % 69 % 0 % 1011,4 hPa 0,0 l/m 0,7 km/h (0 Bft) 0 min 0,0 km/h (0 Bft)
17.07.2009 04:12 24,0 C 19,9 C 0,0 UV-I 0,0 C 55 % 69 % 0 % 1011,4 hPa 0,0 l/m 0,7 km/h (0 Bft) 0 min 2,6 km/h (1 Bft)
17.07.2009 04:16 24,0 C 19,9 C 0,0 UV-I 0,0 C 55 % 69 % 0 % 1011,4 hPa 0,0 l/m 0,5 km/h (0 Bft) 0 min 0,0 km/h (0 Bft)
17.07.2009 04:18 24,0 C 19,9 C 0,0 UV-I 0,0 C 55 % 69 % 0 % 1011,1 hPa 0,0 l/m 0,5 km/h (0 Bft) 0 min 2,4 km/h (1 Bft)
17.07.2009 04:20 24,0 C 20,0 C 0,0 UV-I 0,0 C 55 % 69 % 0 % 1011,1 hPa 0,0 l/m 1,0 km/h (0 Bft) 0 min 5,5 km/h (1 Bft)
17.07.2009 04:22 24,0 C 20,0 C 0,0 UV-I 0,0 C 55 % 69 % 0 % 1011,1 hPa 0,0 l/m 1,0 km/h (0 Bft) 0 min 0,0 km/h (0 Bft)
17.07.2009 04:24 24,0 C 20,0 C 0,0 UV-I 0,0 C 55 % 69 % 0 % 1011,1 hPa 0,0 l/m 1,0 km/h (0 Bft) 0 min 0,0 km/h (0 Bft)
17.07.2009 04:26 24,0 C 20,0 C 0,0 UV-I 0,0 C 55 % 69 % 0 % 1011,1 hPa 0,0 l/m 0,5 km/h (0 Bft) 0 min 0,0 km/h (0 Bft)
17.07.2009 04:28 24,0 C 20,0 C 0,0 UV-I 0,0 C 55 % 69 % 0 % 1011,1 hPa 0,0 l/m 0,5 km/h (0 Bft) 0 min 0,0 km/h (0 Bft)
17.07.2009 04:30 24,0 C 20,0 C 0,0 UV-I 0,0 C 55 % 69 % 0 % 1011,1 hPa 0,0 l/m 1,0 km/h (0 Bft) 0 min 3,4 km/h (1 Bft)
17.07.2009 04:32 24,0 C 20,0 C 0,0 UV-I 0,0 C 55 % 69 % 0 % 1011,1 hPa 0,0 l/m 1,2 km/h (1 Bft) 0 min 0,0 km/h (0 Bft)
17.07.2009 04:34 24,0 C 20,0 C 0,0 UV-I 0,0 C 55 % 69 % 0 % 1011,1 hPa 0,0 l/m 1,4 km/h (1 Bft) 0 min 3,4 km/h (1 Bft)
17.07.2009 04:36 24,0 C 20,0 C 0,0 UV-I 0,0 C 55 % 69 % 0 % 1011,1 hPa 0,0 l/m 1,7 km/h (1 Bft) 0 min 4,8 km/h (1 Bft)
17.07.2009 04:38 24,0 C 20,0 C 0,0 UV-I 0,0 C 55 % 69 % 0 % 1010,4 hPa 0,0 l/m 1,9 km/h (1 Bft) 0 min 3,6 km/h (1 Bft)
17.07.2009 04:40 24,0 C 20,0 C 0,0 UV-I 0,0 C 55 % 69 % 0 % 1010,4 hPa 0,0 l/m 1,7 km/h (1 Bft) 0 min 3,8 km/h (1 Bft)
17.07.2009 04:42 24,0 C 20,0 C 0,0 UV-I 0,0 C 55 % 69 % 0 % 1010,4 hPa 0,0 l/m 1,0 km/h (0 Bft) 0 min 0,0 km/h (0 Bft)
17.07.2009 04:44 24,0 C 20,0 C 0,0 UV-I 0,0 C 55 % 69 % 0 % 1010,4 hPa 0,0 l/m 1,0 km/h (0 Bft) 0 min 0,0 km/h (0 Bft)
17.07.2009 04:46 24,0 C 20,0 C 0,0 UV-I 0,0 C 55 % 69 % 0 % 1010,4 hPa 0,0 l/m 0,7 km/h (0 Bft) 0 min 2,4 km/h (1 Bft)
17.07.2009 04:48 24,0 C 20,0 C 0,0 UV-I 0,0 C 55 % 69 % 0 % 1010,4 hPa 0,0 l/m 0,7 km/h (0 Bft) 0 min 2,4 km/h (1 Bft)
17.07.2009 04:50 24,0 C 20,0 C 0,0 UV-I 0,0 C 55 % 69 % 0 % 1010,4 hPa 0,0 l/m 0,7 km/h (0 Bft) 0 min 0,0 km/h (0 Bft)
17.07.2009 04:54 24,0 C 20,0 C 0,0 UV-I 0,0 C 55 % 69 % 0 % 1010,4 hPa 0,0 l/m 0,7 km/h (0 Bft) 0 min 2,9 km/h (1 Bft)
17.07.2009 04:56 24,0 C 20,0 C 0,0 UV-I 0,0 C 55 % 69 % 0 % 1010,4 hPa 0,0 l/m 0,7 km/h (0 Bft) 0 min 0,0 km/h (0 Bft)
17.07.2009 04:58 24,0 C 20,0 C 0,0 UV-I 0,0 C 55 % 69 % 0 % 1010,0 hPa 0,0 l/m 0,7 km/h (0 Bft) 0 min 0,0 km/h (0 Bft)
17.07.2009 05:00 24,0 C 20,0 C 0,0 UV-I 0,0 C 55 % 69 % 0 % 1010,0 hPa 0,0 l/m 1,0 km/h (0 Bft) 0 min 3,1 km/h (1 Bft)
17.07.2009 05:02 24,0 C 20,0 C 0,0 UV-I 0,0 C 55 % 69 % 0 % 1010,0 hPa 0,0 l/m 0,7 km/h (0 Bft) 0 min 0,0 km/h (0 Bft)
17.07.2009 05:04 24,0 C 20,0 C 0,0 UV-I 0,0 C 55 % 69 % 0 % 1010,0 hPa 0,0 l/m 0,5 km/h (0 Bft) 0 min 0,0 km/h (0 Bft)
17.07.2009 05:08 24,0 C 19,9 C 0,0 UV-I 0,0 C 55 % 69 % 0 % 1010,0 hPa 0,0 l/m 0,2 km/h (0 Bft) 0 min 0,0 km/h (0 Bft)
17.07.2009 05:10 24,0 C 20,0 C 0,0 UV-I 0,0 C 55 % 69 % 0 % 1010,0 hPa 0,0 l/m 0,5 km/h (0 Bft) 0 min 0,0 km/h (0 Bft)
17.07.2009 05:14 23,9 C 19,9 C 0,0 UV-I 0,0 C 55 % 69 % 0 % 1010,0 hPa 0,0 l/m 0,2 km/h (0 Bft) 0 min 0,0 km/h (0 Bft)
17.07.2009 05:16 23,9 C 20,0 C 0,0 UV-I 0,0 C 55 % 69 % 0 % 1010,0 hPa 0,0 l/m 0,2 km/h (0 Bft) 0 min 0,0 km/h (0 Bft)
17.07.2009 05:18 23,9 C 20,0 C 0,0 UV-I 0,0 C 55 % 69 % 0 % 1009,6 hPa 0,0 l/m 0,5 km/h (0 Bft) 0 min 0,0 km/h (0 Bft)
17.07.2009 05:20 23,9 C 19,9 C 0,0 UV-I 0,0 C 55 % 69 % 0 % 1009,6 hPa 0,0 l/m 0,2 km/h (0 Bft) 0 min 0,0 km/h (0 Bft)
17.07.2009 05:22 24,0 C 19,9 C 0,0 UV-I 0,0 C 55 % 69 % 0 % 1009,6 hPa 0,0 l/m 0,0 km/h (0 Bft) 0 min 0,0 km/h (0 Bft)
17.07.2009 05:24 23,9 C 19,9 C 0,0 UV-I 0,0 C 55 % 69 % 0 % 1009,6 hPa 0,0 l/m 0,0 km/h (0 Bft) 0 min 0,0 km/h (0 Bft)
17.07.2009 05:26 23,9 C 20,0 C 0,0 UV-I 0,0 C 55 % 69 % 0 % 1009,6 hPa 0,0 l/m 0,2 km/h (0 Bft) 0 min 0,0 km/h (0 Bft)
17.07.2009 05:28 23,9 C 20,0 C 0,0 UV-I 0,0 C 55 % 69 % 0 % 1009,6 hPa 0,0 l/m 0,0 km/h (0 Bft) 0 min 0,0 km/h (0 Bft)
17.07.2009 05:30 23,9 C 20,0 C 0,0 UV-I 0,0 C 55 % 69 % 0 % 1009,6 hPa 0,0 l/m 0,2 km/h (0 Bft) 0 min 0,0 km/h (0 Bft)
17.07.2009 05:32 23,9 C 20,1 C 0,0 UV-I 0,0 C 55 % 69 % 0 % 1009,6 hPa 0,0 l/m 0,2 km/h (0 Bft) 0 min 0,0 km/h (0 Bft)
17.07.2009 05:34 23,9 C 20,1 C 0,0 UV-I 0,0 C 55 % 68 % 0 % 1009,6 hPa 0,0 l/m 0,5 km/h (0 Bft) 0 min 3,1 km/h (1 Bft)
17.07.2009 05:36 23,9 C 20,0 C 0,0 UV-I 0,0 C 55 % 68 % 0 % 1009,6 hPa 0,0 l/m 0,7 km/h (0 Bft) 0 min 3,6 km/h (1 Bft)
17.07.2009 05:38 23,9 C 20,0 C 0,0 UV-I 0,0 C 55 % 68 % 0 % 1009,9 hPa 0,0 l/m 1,0 km/h (0 Bft) 0 min 0,0 km/h (0 Bft)
17.07.2009 05:40 23,9 C 20,0 C 0,0 UV-I 0,0 C 55 % 68 % 0 % 1009,9 hPa 0,0 l/m 1,0 km/h (0 Bft) 0 min 0,0 km/h (0 Bft)
17.07.2009 05:42 23,9 C 20,0 C 0,0 UV-I 0,0 C 55 % 68 % 0 % 1009,9 hPa 0,0 l/m 1,0 km/h (0 Bft) 0 min 4,6 km/h (1 Bft)
17.07.2009 05:44 23,9 C 20,0 C 0,0 UV-I 0,0 C 55 % 68 % 0 % 1009,9 hPa 0,0 l/m 1,2 km/h (1 Bft) 0 min 5,1 km/h (1 Bft)
17.07.2009 05:46 23,9 C 20,0 C 0,0 UV-I 0,0 C 55 % 68 % 0 % 1009,9 hPa 0,0 l/m 1,0 km/h (0 Bft) 0 min 4,1 km/h (1 Bft)
17.07.2009 05:48 23,9 C 20,1 C 0,0 UV-I 0,0 C 55 % 68 % 0 % 1009,9 hPa 0,0 l/m 0,7 km/h (0 Bft) 0 min 2,9 km/h (1 Bft)
17.07.2009 05:50 23,9 C 20,0 C 0,0 UV-I 0,0 C 55 % 68 % 0 % 1009,9 hPa 0,0 l/m 1,2 km/h (1 Bft) 0 min 2,6 km/h (1 Bft)
17.07.2009 05:52 23,9 C 20,1 C 0,0 UV-I 0,0 C 55 % 68 % 0 % 1009,9 hPa 0,0 l/m 1,2 km/h (1 Bft) 0 min 3,6 km/h (1 Bft)
17.07.2009 05:54 23,9 C 20,1 C 0,0 UV-I 0,0 C 55 % 68 % 0 % 1009,9 hPa 0,0 l/m 1,9 km/h (1 Bft) 0 min 9,4 km/h (2 Bft)
17.07.2009 05:56 23,9 C 20,0 C 0,0 UV-I 0,0 C 55 % 68 % 0 % 1009,9 hPa 0,0 l/m 1,9 km/h (1 Bft) 0 min 3,6 km/h (1 Bft)
17.07.2009 05:58 23,9 C 20,0 C 0,0 UV-I 0,0 C 55 % 69 % 0 % 1009,6 hPa 0,0 l/m 1,9 km/h (1 Bft) 0 min 0,0 km/h (0 Bft)
17.07.2009 06:00 23,9 C 20,0 C 0,0 UV-I 0,0 C 55 % 69 % 0 % 1009,6 hPa 0,0 l/m 1,7 km/h (1 Bft) 0 min 2,6 km/h (1 Bft)
17.07.2009 06:02 23,9 C 20,1 C 0,0 UV-I 0,0 C 55 % 69 % 0 % 1009,6 hPa 0,0 l/m 1,4 km/h (1 Bft) 0 min 0,0 km/h (0 Bft)
17.07.2009 06:04 23,9 C 20,1 C 0,0 UV-I 0,0 C 55 % 69 % 0 % 1009,6 hPa 0,0 l/m 1,2 km/h (1 Bft) 0 min 0,0 km/h (0 Bft)
17.07.2009 06:06 23,9 C 20,1 C 0,0 UV-I 0,0 C 55 % 69 % 0 % 1009,6 hPa 0,0 l/m 1,2 km/h (1 Bft) 0 min 0,0 km/h (0 Bft)
17.07.2009 06:08 23,9 C 20,1 C 0,0 UV-I 0,0 C 55 % 69 % 0 % 1009,6 hPa 0,0 l/m 1,2 km/h (1 Bft) 0 min 0,0 km/h (0 Bft)
17.07.2009 06:10 23,9 C 20,1 C 0,0 UV-I 0,0 C 55 % 69 % 0 % 1009,6 hPa 0,0 l/m 1,2 km/h (1 Bft) 0 min 0,0 km/h (0 Bft)
17.07.2009 06:12 23,9 C 20,0 C 0,0 UV-I 0,0 C 55 % 69 % 0 % 1009,6 hPa 0,0 l/m 1,2 km/h (1 Bft) 0 min 0,0 km/h (0 Bft)
17.07.2009 06:14 23,9 C 19,9 C 0,0 UV-I 0,0 C 55 % 69 % 0 % 1009,6 hPa 0,0 l/m 0,0 km/h (0 Bft) 0 min 0,0 km/h (0 Bft)
17.07.2009 06:16 23,9 C 20,0 C 0,0 UV-I 0,0 C 55 % 69 % 0 % 1009,6 hPa 0,0 l/m 0,0 km/h (0 Bft) 0 min 0,0 km/h (0 Bft)
17.07.2009 06:18 23,9 C 19,9 C 0,0 UV-I 0,0 C 55 % 69 % 0 % 1009,1 hPa 0,0 l/m 0,0 km/h (0 Bft) 0 min 0,0 km/h (0 Bft)
17.07.2009 06:20 23,9 C 19,9 C 0,0 UV-I 0,0 C 55 % 69 % 0 % 1009,1 hPa 0,0 l/m 0,0 km/h (0 Bft) 0 min 0,0 km/h (0 Bft)
17.07.2009 06:22 23,9 C 19,9 C 0,0 UV-I 0,0 C 55 % 69 % 0 % 1009,1 hPa 0,0 l/m 0,0 km/h (0 Bft) 0 min 0,0 km/h (0 Bft)
17.07.2009 06:24 23,9 C 19,9 C 0,0 UV-I 0,0 C 55 % 69 % 0 % 1009,1 hPa 0,0 l/m 0,0 km/h (0 Bft) 0 min 0,0 km/h (0 Bft)
17.07.2009 06:26 23,9 C 20,0 C 0,0 UV-I 0,0 C 55 % 70 % 0 % 1009,1 hPa 0,0 l/m 0,2 km/h (0 Bft) 0 min 0,0 km/h (0 Bft)
17.07.2009 06:28 23,9 C 19,9 C 0,0 UV-I 0,0 C 55 % 69 % 0 % 1009,1 hPa 0,0 l/m 0,5 km/h (0 Bft) 0 min 3,1 km/h (1 Bft)
17.07.2009 06:30 23,9 C 19,9 C 0,0 UV-I 0,0 C 55 % 69 % 0 % 1009,1 hPa 0,0 l/m 0,5 km/h (0 Bft) 0 min 0,0 km/h (0 Bft)
17.07.2009 06:32 23,9 C 19,9 C 0,0 UV-I 0,0 C 55 % 69 % 0 % 1009,1 hPa 0,0 l/m 0,5 km/h (0 Bft) 0 min 0,0 km/h (0 Bft)
17.07.2009 06:34 23,9 C 19,9 C 0,0 UV-I 0,0 C 55 % 69 % 0 % 1009,1 hPa 0,0 l/m 0,5 km/h (0 Bft) 0 min 0,0 km/h (0 Bft)
17.07.2009 06:36 23,9 C 19,9 C 0,0 UV-I 0,0 C 55 % 69 % 0 % 1009,1 hPa 0,0 l/m 0,5 km/h (0 Bft) 0 min 0,0 km/h (0 Bft)
17.07.2009 06:38 23,9 C 19,9 C 0,0 UV-I 0,0 C 55 % 69 % 0 % 1009,2 hPa 0,0 l/m 0,2 km/h (0 Bft) 0 min 0,0 km/h (0 Bft)
17.07.2009 06:40 23,9 C 19,8 C 0,0 UV-I 0,0 C 55 % 69 % 0 % 1009,2 hPa 0,0 l/m 0,0 km/h (0 Bft) 0 min 0,0 km/h (0 Bft)
17.07.2009 06:42 23,9 C 19,9 C 0,0 UV-I 0,0 C 55 % 69 % 0 % 1009,2 hPa 0,0 l/m 0,2 km/h (0 Bft) 0 min 4,3 km/h (1 Bft)
17.07.2009 06:44 23,9 C 19,9 C 0,0 UV-I 0,0 C 55 % 69 % 0 % 1009,2 hPa 0,0 l/m 0,2 km/h (0 Bft) 0 min 0,0 km/h (0 Bft)
17.07.2009 06:46 23,9 C 19,9 C 0,0 UV-I 0,0 C 55 % 69 % 0 % 1009,2 hPa 0,0 l/m 0,2 km/h (0 Bft) 0 min 0,0 km/h (0 Bft)
17.07.2009 06:48 23,9 C 20,0 C 0,0 UV-I 0,0 C 55 % 69 % 0 % 1009,2 hPa 0,0 l/m 0,2 km/h (0 Bft) 0 min 0,0 km/h (0 Bft)
17.07.2009 06:50 23,9 C 20,0 C 0,0 UV-I 0,0 C 55 % 69 % 0 % 1009,2 hPa 0,0 l/m 1,0 km/h (0 Bft) 0 min 7,5 km/h (2 Bft)
17.07.2009 06:52 23,8 C 20,0 C 0,0 UV-I 0,0 C 55 % 70 % 0 % 1009,2 hPa 0,0 l/m 1,7 km/h (1 Bft) 0 min 6,7 km/h (2 Bft)
17.07.2009 06:54 23,9 C 20,1 C 0,0 UV-I 0,0 C 55 % 70 % 0 % 1009,2 hPa 0,0 l/m 2,2 km/h (1 Bft) 0 min 10,8 km/h (2 Bft)
17.07.2009 06:56 23,9 C 20,0 C 0,0 UV-I 0,0 C 55 % 70 % 0 % 1009,2 hPa 0,0 l/m 3,8 km/h (1 Bft) 0 min 10,6 km/h (2 Bft)
17.07.2009 07:00 23,9 C 20,1 C 0,0 UV-I 0,0 C 56 % 70 % 0 % 1009,6 hPa 0,0 l/m 6,0 km/h (2 Bft) 0 min 9,4 km/h (2 Bft)
17.07.2009 07:02 23,8 C 20,0 C 0,0 UV-I 0,0 C 56 % 71 % 0 % 1009,6 hPa 0,0 l/m 6,3 km/h (2 Bft) 0 min 16,1 km/h (3 Bft)
17.07.2009 07:04 23,8 C 20,0 C 0,0 UV-I 0,0 C 56 % 72 % 0 % 1009,6 hPa 0,0 l/m 6,7 km/h (2 Bft) 0 min 16,1 km/h (3 Bft)
17.07.2009 07:06 23,8 C 19,9 C 0,0 UV-I 0,0 C 56 % 73 % 0 % 1009,6 hPa 0,0 l/m 7,2 km/h (2 Bft) 0 min 14,0 km/h (3 Bft)
17.07.2009 07:08 23,8 C 19,8 C 0,1 UV-I 0,0 C 56 % 73 % 0 % 1009,6 hPa 0,0 l/m 6,5 km/h (2 Bft) 0 min 3,4 km/h (1 Bft)
17.07.2009 07:10 23,8 C 19,8 C 0,1 UV-I 0,0 C 56 % 73 % 0 % 1009,6 hPa 0,0 l/m 5,5 km/h (1 Bft) 0 min 3,4 km/h (1 Bft)
17.07.2009 07:12 23,8 C 19,9 C 0,1 UV-I 0,0 C 56 % 73 % 0 % 1009,6 hPa 0,0 l/m 5,5 km/h (1 Bft) 0 min 4,1 km/h (1 Bft)
17.07.2009 07:14 23,8 C 19,8 C 0,2 UV-I 0,0 C 56 % 74 % 0 % 1009,6 hPa 0,0 l/m 5,1 km/h (1 Bft) 0 min 7,2 km/h (2 Bft)
17.07.2009 07:16 23,8 C 19,7 C 0,2 UV-I 0,0 C 56 % 74 % 0 % 1009,6 hPa 0,0 l/m 3,8 km/h (1 Bft) 0 min 6,5 km/h (2 Bft)
17.07.2009 07:18 23,8 C 19,7 C 0,2 UV-I 0,0 C 57 % 74 % 0 % 1009,4 hPa 0,0 l/m 3,1 km/h (1 Bft) 0 min 3,6 km/h (1 Bft)
17.07.2009 07:20 23,8 C 19,7 C 0,2 UV-I 0,0 C 57 % 74 % 0 % 1009,4 hPa 0,0 l/m 3,6 km/h (1 Bft) 0 min 10,3 km/h (2 Bft)
17.07.2009 07:22 23,8 C 19,7 C 0,2 UV-I 0,0 C 57 % 74 % 0 % 1009,4 hPa 0,0 l/m 4,1 km/h (1 Bft) 0 min 4,6 km/h (1 Bft)
17.07.2009 07:24 23,8 C 19,7 C 0,3 UV-I 0,0 C 57 % 74 % 0 % 1009,4 hPa 0,0 l/m 4,6 km/h (1 Bft) 0 min 16,6 km/h (3 Bft)
17.07.2009 07:26 23,8 C 19,9 C 0,3 UV-I 0,0 C 57 % 74 % 0 % 1009,4 hPa 0,0 l/m 4,3 km/h (1 Bft) 0 min 6,7 km/h (2 Bft)
17.07.2009 07:28 23,8 C 19,9 C 0,2 UV-I 0,0 C 57 % 73 % 0 % 1009,4 hPa 0,0 l/m 4,8 km/h (1 Bft) 0 min 6,3 km/h (2 Bft)
17.07.2009 07:30 23,8 C 19,8 C 0,2 UV-I 0,0 C 57 % 73 % 0 % 1009,4 hPa 0,0 l/m 5,1 km/h (1 Bft) 0 min 9,6 km/h (2 Bft)
17.07.2009 07:32 23,8 C 19,8 C 0,2 UV-I 0,0 C 57 % 73 % 0 % 1009,4 hPa 0,0 l/m 4,6 km/h (1 Bft) 0 min 24,8 km/h (4 Bft)
17.07.2009 07:34 23,8 C 19,9 C 0,2 UV-I 0,0 C 57 % 73 % 0 % 1009,4 hPa 0,0 l/m 4,6 km/h (1 Bft) 0 min 24,8 km/h (4 Bft)
17.07.2009 07:36 23,8 C 20,1 C 0,2 UV-I 0,0 C 57 % 73 % 0 % 1009,4 hPa 0,0 l/m 5,1 km/h (1 Bft) 0 min 6,0 km/h (2 Bft)
17.07.2009 07:38 23,7 C 20,1 C 0,1 UV-I 0,0 C 57 % 73 % 0 % 1009,5 hPa 0,0 l/m 5,1 km/h (1 Bft) 0 min 9,9 km/h (2 Bft)
17.07.2009 07:40 23,7 C 20,1 C 0,1 UV-I 0,0 C 57 % 74 % 0 % 1009,5 hPa 0,0 l/m 5,1 km/h (1 Bft) 0 min 7,0 km/h (2 Bft)
17.07.2009 07:42 23,7 C 20,0 C 0,1 UV-I 0,0 C 57 % 74 % 0 % 1009,5 hPa 0,0 l/m 5,5 km/h (1 Bft) 0 min 11,3 km/h (2 Bft)
17.07.2009 07:44 23,7 C 20,1 C 0,0 UV-I 0,0 C 57 % 74 % 0 % 1009,5 hPa 0,0 l/m 5,1 km/h (1 Bft) 0 min 10,1 km/h (2 Bft)
17.07.2009 07:46 23,7 C 20,1 C 0,0 UV-I 0,0 C 57 % 74 % 0 % 1009,5 hPa 0,0 l/m 4,6 km/h (1 Bft) 0 min 4,3 km/h (1 Bft)
17.07.2009 07:48 23,7 C 20,1 C 0,1 UV-I 0,0 C 57 % 74 % 0 % 1009,5 hPa 0,0 l/m 4,3 km/h (1 Bft) 0 min 9,6 km/h (2 Bft)
17.07.2009 07:50 23,7 C 20,2 C 0,1 UV-I 0,0 C 57 % 74 % 0 % 1009,5 hPa 0,0 l/m 4,1 km/h (1 Bft) 0 min 6,5 km/h (2 Bft)
17.07.2009 07:52 23,7 C 20,1 C 0,1 UV-I 0,0 C 57 % 74 % 0 % 1009,5 hPa 0,0 l/m 4,1 km/h (1 Bft) 0 min 5,1 km/h (1 Bft)
17.07.2009 07:54 23,7 C 20,1 C 0,0 UV-I 0,0 C 58 % 74 % 0 % 1009,5 hPa 0,0 l/m 3,1 km/h (1 Bft) 0 min 0,0 km/h (0 Bft)
17.07.2009 07:56 23,7 C 20,1 C 0,0 UV-I 0,0 C 58 % 75 % 0 % 1009,5 hPa 0,0 l/m 2,4 km/h (1 Bft) 0 min 2,9 km/h (1 Bft)
17.07.2009 07:58 23,7 C 20,0 C 0,0 UV-I 0,0 C 58 % 75 % 0 % 1010,1 hPa 0,0 l/m 2,4 km/h (1 Bft) 0 min 0,0 km/h (0 Bft)
17.07.2009 08:00 23,7 C 20,1 C 0,0 UV-I 0,0 C 58 % 75 % 0 % 1010,1 hPa 0,0 l/m 1,7 km/h (1 Bft) 0 min 0,0 km/h (0 Bft)
17.07.2009 08:02 23,7 C 20,1 C 0,0 UV-I 0,0 C 58 % 75 % 0 % 1010,1 hPa 0,0 l/m 1,4 km/h (1 Bft) 0 min 7,2 km/h (2 Bft)
17.07.2009 08:04 23,7 C 20,0 C 0,0 UV-I 0,0 C 58 % 76 % 0 % 1010,1 hPa 0,0 l/m 1,9 km/h (1 Bft) 0 min 6,5 km/h (2 Bft)
17.07.2009 08:06 23,7 C 20,1 C 0,0 UV-I 0,0 C 58 % 76 % 0 % 1010,1 hPa 0,0 l/m 1,7 km/h (1 Bft) 0 min 2,4 km/h (1 Bft)
17.07.2009 08:08 23,7 C 20,0 C 0,0 UV-I 0,0 C 58 % 76 % 0 % 1010,1 hPa 0,0 l/m 1,9 km/h (1 Bft) 0 min 0,0 km/h (0 Bft)
17.07.2009 08:10 23,7 C 20,1 C 0,0 UV-I 0,0 C 58 % 77 % 0 % 1010,1 hPa 0,0 l/m 2,2 km/h (1 Bft) 0 min 3,6 km/h (1 Bft)
17.07.2009 08:12 23,7 C 20,0 C 0,0 UV-I 0,0 C 59 % 77 % 0 % 1010,1 hPa 0,0 l/m 3,4 km/h (1 Bft) 0 min 2,6 km/h (1 Bft)
17.07.2009 08:14 23,7 C 20,0 C 0,1 UV-I 0,0 C 59 % 77 % 0 % 1010,1 hPa 0,0 l/m 3,4 km/h (1 Bft) 0 min 2,6 km/h (1 Bft)
17.07.2009 08:16 23,7 C 19,9 C 0,1 UV-I 0,0 C 59 % 77 % 0 % 1010,1 hPa 0,0 l/m 2,9 km/h (1 Bft) 0 min 0,0 km/h (0 Bft)
17.07.2009 08:18 23,7 C 19,9 C 0,1 UV-I 0,0 C 59 % 78 % 0 % 1010,2 hPa 0,1 l/m 2,9 km/h (1 Bft) 0 min 3,6 km/h (1 Bft)
17.07.2009 08:20 23,7 C 19,9 C 0,1 UV-I 0,0 C 59 % 79 % 0 % 1010,2 hPa 0,1 l/m 2,9 km/h (1 Bft) 0 min 2,9 km/h (1 Bft)
17.07.2009 08:22 23,6 C 19,9 C 0,1 UV-I 0,0 C 59 % 79 % 0 % 1010,2 hPa 0,0 l/m 2,4 km/h (1 Bft) 0 min 5,8 km/h (2 Bft)
17.07.2009 08:24 23,7 C 19,8 C 0,1 UV-I 0,0 C 60 % 79 % 0 % 1010,2 hPa 0,0 l/m 1,9 km/h (1 Bft) 0 min 0,0 km/h (0 Bft)
17.07.2009 08:26 23,7 C 19,7 C 0,1 UV-I 0,0 C 60 % 79 % 0 % 1010,2 hPa 0,1 l/m 1,7 km/h (1 Bft) 0 min 3,8 km/h (1 Bft)
17.07.2009 08:28 23,7 C 19,7 C 0,1 UV-I 0,0 C 60 % 80 % 0 % 1010,2 hPa 0,0 l/m 1,7 km/h (1 Bft) 0 min 2,6 km/h (1 Bft)
17.07.2009 08:30 23,7 C 19,6 C 0,1 UV-I 0,0 C 60 % 80 % 0 % 1010,2 hPa 0,2 l/m 1,4 km/h (1 Bft) 0 min 0,0 km/h (0 Bft)
17.07.2009 08:32 23,6 C 19,6 C 0,1 UV-I 0,0 C 60 % 80 % 0 % 1010,2 hPa 0,0 l/m 1,4 km/h (1 Bft) 0 min 0,0 km/h (0 Bft)
17.07.2009 08:34 23,6 C 19,6 C 0,1 UV-I 0,0 C 61 % 81 % 0 % 1010,2 hPa 0,0 l/m 0,7 km/h (0 Bft) 0 min 0,0 km/h (0 Bft)
17.07.2009 08:36 23,6 C 19,6 C 0,1 UV-I 0,0 C 61 % 81 % 0 % 1010,2 hPa 0,1 l/m 0,7 km/h (0 Bft) 0 min 3,4 km/h (1 Bft)
17.07.2009 08:38 23,6 C 19,6 C 0,2 UV-I 0,0 C 61 % 81 % 0 % 1009,9 hPa 0,0 l/m 0,5 km/h (0 Bft) 0 min 0,0 km/h (0 Bft)
17.07.2009 08:40 23,6 C 19,6 C 0,2 UV-I 0,0 C 61 % 81 % 0 % 1009,9 hPa 0,0 l/m 0,2 km/h (0 Bft) 0 min 0,0 km/h (0 Bft)
17.07.2009 08:42 23,6 C 19,5 C 0,2 UV-I 0,0 C 61 % 81 % 0 % 1009,9 hPa 0,2 l/m 0,2 km/h (0 Bft) 0 min 0,0 km/h (0 Bft)
17.07.2009 08:44 23,6 C 19,5 C 0,2 UV-I 0,0 C 61 % 81 % 0 % 1009,9 hPa 0,0 l/m 0,0 km/h (0 Bft) 0 min 0,0 km/h (0 Bft)
17.07.2009 08:46 23,6 C 19,4 C 0,2 UV-I 0,0 C 61 % 81 % 0 % 1009,9 hPa 0,1 l/m 0,0 km/h (0 Bft) 0 min 0,0 km/h (0 Bft)
17.07.2009 08:48 23,6 C 19,5 C 0,2 UV-I 0,0 C 61 % 82 % 0 % 1009,9 hPa 0,0 l/m 0,0 km/h (0 Bft) 0 min 0,0 km/h (0 Bft)
17.07.2009 08:50 23,6 C 19,5 C 0,2 UV-I 0,0 C 61 % 82 % 0 % 1009,9 hPa 0,0 l/m 0,0 km/h (0 Bft) 0 min 0,0 km/h (0 Bft)
17.07.2009 08:52 23,6 C 19,5 C 0,2 UV-I 0,0 C 61 % 82 % 0 % 1009,9 hPa 0,1 l/m 0,0 km/h (0 Bft) 0 min 0,0 km/h (0 Bft)
17.07.2009 08:54 23,6 C 19,5 C 0,3 UV-I 0,0 C 61 % 83 % 0 % 1009,9 hPa 0,1 l/m 0,0 km/h (0 Bft) 0 min 0,0 km/h (0 Bft)
17.07.2009 08:56 23,6 C 19,5 C 0,3 UV-I 0,0 C 61 % 83 % 0 % 1009,9 hPa 0,0 l/m 0,0 km/h (0 Bft) 0 min 0,0 km/h (0 Bft)
17.07.2009 08:58 23,6 C 19,3 C 0,3 UV-I 0,0 C 61 % 83 % 0 % 1009,0 hPa 0,0 l/m 0,0 km/h (0 Bft) 0 min 0,0 km/h (0 Bft)
17.07.2009 09:00 23,6 C 19,3 C 0,3 UV-I 0,0 C 61 % 83 % 0 % 1009,0 hPa 0,1 l/m 0,0 km/h (0 Bft) 0 min 0,0 km/h (0 Bft)
17.07.2009 09:02 23,7 C 19,3 C 0,3 UV-I 0,0 C 61 % 84 % 0 % 1009,0 hPa 0,0 l/m 0,0 km/h (0 Bft) 0 min 0,0 km/h (0 Bft)
17.07.2009 09:04 23,6 C 19,3 C 0,3 UV-I 0,0 C 61 % 84 % 0 % 1009,0 hPa 0,1 l/m 0,0 km/h (0 Bft) 0 min 0,0 km/h (0 Bft)
17.07.2009 09:06 23,7 C 19,2 C 0,3 UV-I 0,0 C 61 % 84 % 0 % 1009,0 hPa 0,1 l/m 0,0 km/h (0 Bft) 0 min 0,0 km/h (0 Bft)
17.07.2009 09:08 23,6 C 19,2 C 0,4 UV-I 0,0 C 61 % 84 % 0 % 1009,0 hPa 0,0 l/m 0,0 km/h (0 Bft) 0 min 0,0 km/h (0 Bft)
17.07.2009 09:10 23,6 C 19,3 C 0,4 UV-I 0,0 C 61 % 85 % 0 % 1009,0 hPa 0,1 l/m 0,0 km/h (0 Bft) 0 min 2,6 km/h (1 Bft)
17.07.2009 09:12 23,7 C 19,2 C 0,4 UV-I 0,0 C 61 % 85 % 0 % 1009,0 hPa 0,1 l/m 0,0 km/h (0 Bft) 0 min 0,0 km/h (0 Bft)
17.07.2009 09:14 23,6 C 19,3 C 0,4 UV-I 0,0 C 61 % 85 % 0 % 1009,0 hPa 0,0 l/m 0,5 km/h (0 Bft) 0 min 4,3 km/h (1 Bft)
17.07.2009 09:16 23,7 C 19,3 C 0,4 UV-I 0,0 C 61 % 85 % 0 % 1009,0 hPa 0,1 l/m 0,5 km/h (0 Bft) 0 min 2,4 km/h (1 Bft)
17.07.2009 09:18 23,7 C 19,2 C 0,5 UV-I 0,0 C 61 % 85 % 0 % 1009,5 hPa 0,0 l/m 0,5 km/h (0 Bft) 0 min 0,0 km/h (0 Bft)
17.07.2009 09:20 23,7 C 19,2 C 0,5 UV-I 0,0 C 61 % 85 % 0 % 1009,5 hPa 0,0 l/m 0,5 km/h (0 Bft) 0 min 0,0 km/h (0 Bft)
17.07.2009 09:22 23,7 C 19,2 C 0,5 UV-I 0,0 C 61 % 85 % 0 % 1009,5 hPa 0,1 l/m 0,5 km/h (0 Bft) 0 min 0,0 km/h (0 Bft)
17.07.2009 09:24 23,7 C 19,2 C 0,7 UV-I 0,0 C 61 % 85 % 0 % 1009,5 hPa 0,0 l/m 0,5 km/h (0 Bft) 0 min 0,0 km/h (0 Bft)
17.07.2009 09:28 23,7 C 19,2 C 1,0 UV-I 0,0 C 61 % 86 % 0 % 1009,5 hPa 0,0 l/m 0,0 km/h (0 Bft) 0 min 0,0 km/h (0 Bft)
17.07.2009 09:30 23,7 C 19,2 C 1,0 UV-I 0,0 C 62 % 86 % 0 % 1009,5 hPa 0,0 l/m 0,0 km/h (0 Bft) 0 min 0,0 km/h (0 Bft)
17.07.2009 09:32 23,7 C 19,2 C 1,0 UV-I 0,0 C 62 % 86 % 0 % 1009,5 hPa 0,0 l/m 0,0 km/h (0 Bft) 0 min 0,0 km/h (0 Bft)
17.07.2009 09:34 23,7 C 19,3 C 1,0 UV-I 0,0 C 62 % 86 % 0 % 1009,5 hPa 0,0 l/m 0,2 km/h (0 Bft) 0 min 3,8 km/h (1 Bft)
17.07.2009 09:36 23,7 C 19,2 C 1,0 UV-I 0,0 C 62 % 86 % 0 % 1009,5 hPa 0,0 l/m 0,5 km/h (0 Bft) 0 min 2,9 km/h (1 Bft)
17.07.2009 09:40 23,7 C 19,3 C 1,1 UV-I 0,0 C 62 % 87 % 0 % 1009,6 hPa 0,0 l/m 0,5 km/h (0 Bft) 0 min 0,0 km/h (0 Bft)
17.07.2009 09:42 23,7 C 19,2 C 1,1 UV-I 0,0 C 62 % 86 % 0 % 1009,6 hPa 0,0 l/m 0,5 km/h (0 Bft) 0 min 0,0 km/h (0 Bft)
17.07.2009 09:44 23,7 C 19,2 C 1,1 UV-I 0,0 C 62 % 87 % 0 % 1009,6 hPa 0,0 l/m 0,5 km/h (0 Bft) 0 min 0,0 km/h (0 Bft)
17.07.2009 09:46 23,7 C 19,3 C 1,1 UV-I 0,0 C 62 % 87 % 0 % 1009,6 hPa 0,0 l/m 0,2 km/h (0 Bft) 0 min 3,4 km/h (1 Bft)
17.07.2009 09:48 23,7 C 19,3 C 1,1 UV-I 0,0 C 62 % 87 % 0 % 1009,6 hPa 0,0 l/m 0,5 km/h (0 Bft) 0 min 6,0 km/h (2 Bft)
17.07.2009 09:50 23,7 C 19,3 C 1,1 UV-I 0,0 C 62 % 87 % 0 % 1009,6 hPa 0,0 l/m 1,2 km/h (1 Bft) 0 min 5,3 km/h (1 Bft)
17.07.2009 09:52 23,7 C 19,3 C 1,1 UV-I 0,0 C 62 % 87 % 0 % 1009,6 hPa 0,0 l/m 1,9 km/h (1 Bft) 0 min 3,6 km/h (1 Bft)
17.07.2009 09:54 23,7 C 19,3 C 1,3 UV-I 0,0 C 62 % 88 % 0 % 1009,6 hPa 0,0 l/m 1,9 km/h (1 Bft) 0 min 0,0 km/h (0 Bft)
17.07.2009 09:56 23,8 C 19,4 C 1,3 UV-I 0,0 C 62 % 88 % 0 % 1009,6 hPa 0,0 l/m 2,2 km/h (1 Bft) 0 min 3,8 km/h (1 Bft)
17.07.2009 09:58 23,8 C 19,5 C 2,2 UV-I 0,0 C 62 % 88 % 0 % 1009,8 hPa 0,0 l/m 2,6 km/h (1 Bft) 0 min 4,8 km/h (1 Bft)
17.07.2009 10:00 23,8 C 19,5 C 2,2 UV-I 0,0 C 62 % 88 % 0 % 1009,8 hPa 0,0 l/m 2,6 km/h (1 Bft) 0 min 6,0 km/h (2 Bft)
17.07.2009 10:02 23,8 C 19,5 C 2,2 UV-I 0,0 C 62 % 88 % 0 % 1009,8 hPa 0,0 l/m 2,9 km/h (1 Bft) 0 min 10,3 km/h (2 Bft)
17.07.2009 10:04 23,8 C 19,6 C 3,0 UV-I 0,0 C 62 % 88 % 0 % 1009,8 hPa 0,0 l/m 3,1 km/h (1 Bft) 0 min 4,3 km/h (1 Bft)
17.07.2009 10:06 23,8 C 19,6 C 3,0 UV-I 0,0 C 62 % 88 % 0 % 1009,8 hPa 0,0 l/m 3,8 km/h (1 Bft) 0 min 0,0 km/h (0 Bft)
17.07.2009 10:08 23,8 C 19,7 C 2,5 UV-I 0,0 C 62 % 88 % 0 % 1009,8 hPa 0,0 l/m 3,6 km/h (1 Bft) 0 min 3,8 km/h (1 Bft)
17.07.2009 10:10 23,8 C 19,7 C 2,5 UV-I 0,1 C 62 % 89 % 3 % 1009,8 hPa 0,0 l/m 3,8 km/h (1 Bft) 0 min 7,7 km/h (2 Bft)
17.07.2009 10:14 23,8 C 19,9 C 3,7 UV-I 0,5 C 63 % 89 % 14 % 1009,8 hPa 0,0 l/m 3,6 km/h (1 Bft) 0 min 9,6 km/h (2 Bft)
17.07.2009 10:16 23,8 C 19,9 C 3,7 UV-I 0,9 C 63 % 89 % 26 % 1009,8 hPa 0,0 l/m 3,6 km/h (1 Bft) 0 min 3,4 km/h (1 Bft)
17.07.2009 10:18 23,8 C 20,1 C 5,9 UV-I 1,3 C 63 % 88 % 37 % 1009,6 hPa 0,0 l/m 3,8 km/h (1 Bft) 0 min 0,0 km/h (0 Bft)
17.07.2009 10:20 23,9 C 20,1 C 5,9 UV-I 1,8 C 63 % 88 % 51 % 1009,6 hPa 0,0 l/m 3,8 km/h (1 Bft) 0 min 8,2 km/h (2 Bft)
17.07.2009 10:22 23,9 C 20,3 C 5,9 UV-I 1,8 C 63 % 88 % 51 % 1009,6 hPa 0,0 l/m 4,1 km/h (1 Bft) 0 min 6,5 km/h (2 Bft)
17.07.2009 10:24 23,9 C 20,3 C 7,7 UV-I 2,0 C 63 % 87 % 57 % 1009,6 hPa 0,0 l/m 4,8 km/h (1 Bft) 0 min 9,6 km/h (2 Bft)
17.07.2009 10:26 23,9 C 20,5 C 7,7 UV-I 1,9 C 63 % 87 % 54 % 1009,6 hPa 0,0 l/m 5,3 km/h (1 Bft) 0 min 10,1 km/h (2 Bft)
17.07.2009 10:28 23,9 C 20,5 C 10,4 UV-I 2,3 C 63 % 87 % 66 % 1009,6 hPa 0,0 l/m 5,1 km/h (1 Bft) 0 min 2,4 km/h (1 Bft)
17.07.2009 10:30 23,9 C 20,7 C 10,4 UV-I 2,5 C 63 % 88 % 71 % 1009,6 hPa 0,0 l/m 5,1 km/h (1 Bft) 0 min 7,2 km/h (2 Bft)
17.07.2009 10:32 23,9 C 20,7 C 10,4 UV-I 3,1 C 63 % 86 % 89 % 1009,6 hPa 0,0 l/m 4,1 km/h (1 Bft) 2 min 3,6 km/h (1 Bft)
17.07.2009 10:34 23,9 C 20,9 C 9,8 UV-I 3,2 C 63 % 85 % 91 % 1009,6 hPa 0,0 l/m 3,6 km/h (1 Bft) 2 min 4,6 km/h (1 Bft)
17.07.2009 10:36 24,0 C 20,9 C 9,8 UV-I 3,3 C 63 % 84 % 94 % 1009,6 hPa 0,0 l/m 2,9 km/h (1 Bft) 2 min 7,9 km/h (2 Bft)
17.07.2009 10:38 24,0 C 20,8 C 6,2 UV-I 3,2 C 63 % 81 % 91 % 1009,8 hPa 0,0 l/m 3,1 km/h (1 Bft) 2 min 7,7 km/h (2 Bft)
17.07.2009 10:40 24,0 C 20,8 C 6,2 UV-I 2,7 C 63 % 80 % 77 % 1009,8 hPa 0,0 l/m 4,8 km/h (1 Bft) 0 min 20,9 km/h (4 Bft)
17.07.2009 10:42 24,0 C 20,8 C 6,2 UV-I 2,1 C 63 % 81 % 60 % 1009,8 hPa 0,0 l/m 5,8 km/h (2 Bft) 0 min 7,7 km/h (2 Bft)
17.07.2009 10:44 24,0 C 20,8 C 2,8 UV-I 1,8 C 62 % 80 % 51 % 1009,8 hPa 0,0 l/m 6,0 km/h (2 Bft) 0 min 6,7 km/h (2 Bft)
17.07.2009 10:48 24,0 C 20,9 C 6,1 UV-I 1,7 C 62 % 77 % 49 % 1009,8 hPa 0,0 l/m 6,5 km/h (2 Bft) 0 min 9,6 km/h (2 Bft)
17.07.2009 10:50 24,0 C 20,9 C 6,1 UV-I 1,7 C 62 % 75 % 49 % 1009,8 hPa 0,0 l/m 6,5 km/h (2 Bft) 0 min 9,6 km/h (2 Bft)
17.07.2009 10:52 24,0 C 21,0 C 6,1 UV-I 1,9 C 62 % 76 % 54 % 1009,8 hPa 0,0 l/m 6,0 km/h (2 Bft) 0 min 8,9 km/h (2 Bft)
17.07.2009 10:54 24,0 C 21,0 C 8,0 UV-I 2,0 C 62 % 74 % 57 % 1009,8 hPa 0,0 l/m 6,5 km/h (2 Bft) 0 min 15,9 km/h (3 Bft)
17.07.2009 10:56 24,0 C 21,1 C 8,0 UV-I 2,0 C 61 % 73 % 57 % 1009,8 hPa 0,0 l/m 8,4 km/h (2 Bft) 0 min 27,4 km/h (4 Bft)
17.07.2009 10:58 24,0 C 21,2 C 7,5 UV-I 2,0 C 61 % 73 % 57 % 1009,7 hPa 0,0 l/m 9,4 km/h (2 Bft) 0 min 12,5 km/h (3 Bft)
17.07.2009 11:00 24,0 C 21,2 C 7,5 UV-I 1,7 C 61 % 73 % 49 % 1009,7 hPa 0,0 l/m 9,4 km/h (2 Bft) 0 min 16,8 km/h (3 Bft)
17.07.2009 11:02 23,9 C 21,2 C 4,1 UV-I 1,5 C 61 % 72 % 43 % 1009,7 hPa 0,0 l/m 8,9 km/h (2 Bft) 0 min 14,0 km/h (3 Bft)
17.07.2009 11:04 23,9 C 21,2 C 4,1 UV-I 1,4 C 60 % 72 % 40 % 1009,7 hPa 0,0 l/m 9,6 km/h (2 Bft) 0 min 27,4 km/h (4 Bft)
17.07.2009 11:06 23,9 C 21,2 C 4,1 UV-I 1,6 C 60 % 72 % 46 % 1009,7 hPa 0,0 l/m 9,1 km/h (2 Bft) 0 min 9,6 km/h (2 Bft)
17.07.2009 11:08 23,9 C 21,2 C 5,2 UV-I 1,8 C 60 % 71 % 51 % 1009,7 hPa 0,0 l/m 9,1 km/h (2 Bft) 0 min 19,7 km/h (3 Bft)
17.07.2009 11:10 23,9 C 21,3 C 5,2 UV-I 1,5 C 60 % 70 % 43 % 1009,7 hPa 0,0 l/m 8,4 km/h (2 Bft) 0 min 9,1 km/h (2 Bft)
17.07.2009 11:12 23,9 C 21,4 C 5,2 UV-I 1,4 C 60 % 70 % 40 % 1009,7 hPa 0,0 l/m 9,1 km/h (2 Bft) 0 min 22,6 km/h (4 Bft)
17.07.2009 11:14 23,9 C 21,5 C 6,1 UV-I 1,5 C 60 % 70 % 43 % 1009,7 hPa 0,0 l/m 9,1 km/h (2 Bft) 0 min 15,9 km/h (3 Bft)
17.07.2009 11:16 23,9 C 21,5 C 6,1 UV-I 2,1 C 59 % 69 % 60 % 1009,7 hPa 0,0 l/m 8,2 km/h (2 Bft) 0 min 15,9 km/h (3 Bft)
17.07.2009 11:18 23,9 C 21,6 C 11,7 UV-I 2,8 C 59 % 69 % 80 % 1009,6 hPa 0,0 l/m 8,2 km/h (2 Bft) 0 min 13,2 km/h (3 Bft)
17.07.2009 11:20 23,9 C 21,7 C 11,7 UV-I 3,1 C 59 % 69 % 89 % 1009,6 hPa 0,0 l/m 7,5 km/h (2 Bft) 2 min 7,7 km/h (2 Bft)
17.07.2009 11:22 23,9 C 21,9 C 11,7 UV-I 3,1 C 59 % 69 % 89 % 1009,6 hPa 0,0 l/m 7,0 km/h (2 Bft) 2 min 8,9 km/h (2 Bft)
17.07.2009 11:24 23,9 C 21,9 C 10,1 UV-I 3,5 C 59 % 68 % 100 % 1009,6 hPa 0,0 l/m 6,7 km/h (2 Bft) 2 min 9,4 km/h (2 Bft)
17.07.2009 11:26 23,9 C 22,0 C 10,1 UV-I 3,7 C 59 % 67 % 100 % 1009,6 hPa 0,0 l/m 7,7 km/h (2 Bft) 2 min 15,4 km/h (3 Bft)
17.07.2009 11:28 23,9 C 22,0 C 6,3 UV-I 3,4 C 59 % 67 % 97 % 1009,6 hPa 0,0 l/m 7,7 km/h (2 Bft) 2 min 7,5 km/h (2 Bft)
17.07.2009 11:30 23,9 C 22,0 C 6,3 UV-I 2,7 C 59 % 67 % 77 % 1009,6 hPa 0,0 l/m 7,0 km/h (2 Bft) 0 min 12,8 km/h (3 Bft)
17.07.2009 11:32 23,9 C 22,0 C 6,3 UV-I 2,4 C 59 % 67 % 69 % 1009,6 hPa 0,0 l/m 6,7 km/h (2 Bft) 0 min 7,9 km/h (2 Bft)
17.07.2009 11:34 23,9 C 21,9 C 3,2 UV-I 2,2 C 58 % 67 % 63 % 1009,6 hPa 0,0 l/m 7,0 km/h (2 Bft) 0 min 10,8 km/h (2 Bft)
17.07.2009 11:36 23,9 C 21,9 C 3,2 UV-I 1,9 C 58 % 67 % 54 % 1009,6 hPa 0,0 l/m 6,3 km/h (2 Bft) 0 min 5,3 km/h (1 Bft)
17.07.2009 11:38 23,9 C 21,9 C 2,6 UV-I 1,6 C 58 % 67 % 46 % 1009,4 hPa 0,0 l/m 5,3 km/h (1 Bft) 0 min 8,9 km/h (2 Bft)
17.07.2009 11:40 23,9 C 21,9 C 2,6 UV-I 1,4 C 58 % 67 % 40 % 1009,4 hPa 0,0 l/m 5,5 km/h (1 Bft) 0 min 10,3 km/h (2 Bft)
17.07.2009 11:42 24,0 C 21,9 C 2,7 UV-I 1,1 C 58 % 67 % 31 % 1009,4 hPa 0,0 l/m 5,8 km/h (2 Bft) 0 min 4,3 km/h (1 Bft)
17.07.2009 11:44 24,0 C 21,9 C 2,7 UV-I 1,0 C 58 % 67 % 29 % 1009,4 hPa 0,0 l/m 5,8 km/h (2 Bft) 0 min 7,0 km/h (2 Bft)
17.07.2009 11:46 24,0 C 21,9 C 2,7 UV-I 0,9 C 58 % 67 % 26 % 1009,4 hPa 0,0 l/m 6,3 km/h (2 Bft) 0 min 17,8 km/h (3 Bft)
17.07.2009 11:48 23,9 C 21,9 C 2,8 UV-I 0,8 C 58 % 67 % 23 % 1009,4 hPa 0,0 l/m 7,0 km/h (2 Bft) 0 min 13,0 km/h (3 Bft)
17.07.2009 11:50 23,9 C 21,9 C 2,8 UV-I 0,8 C 58 % 67 % 23 % 1009,4 hPa 0,0 l/m 6,7 km/h (2 Bft) 0 min 9,6 km/h (2 Bft)
17.07.2009 11:52 24,0 C 21,9 C 2,8 UV-I 0,8 C 58 % 68 % 23 % 1009,4 hPa 0,0 l/m 6,5 km/h (2 Bft) 0 min 6,3 km/h (2 Bft)
17.07.2009 11:54 24,0 C 22,0 C 3,2 UV-I 0,7 C 58 % 67 % 20 % 1009,4 hPa 0,0 l/m 6,3 km/h (2 Bft) 0 min 2,6 km/h (1 Bft)
17.07.2009 11:56 24,0 C 22,0 C 3,2 UV-I 0,9 C 58 % 67 % 26 % 1009,4 hPa 0,0 l/m 5,8 km/h (2 Bft) 0 min 5,1 km/h (1 Bft)
17.07.2009 11:58 24,0 C 22,0 C 3,9 UV-I 1,0 C 58 % 66 % 29 % 1009,5 hPa 0,0 l/m 5,5 km/h (1 Bft) 0 min 8,9 km/h (2 Bft)
17.07.2009 12:00 24,0 C 22,1 C 3,9 UV-I 0,9 C 58 % 67 % 26 % 1009,5 hPa 0,0 l/m 5,5 km/h (1 Bft) 0 min 4,3 km/h (1 Bft)
17.07.2009 12:02 24,0 C 22,0 C 3,9 UV-I 1,0 C 58 % 67 % 29 % 1009,5 hPa 0,0 l/m 5,5 km/h (1 Bft) 0 min 12,0 km/h (2 Bft)
17.07.2009 12:04 24,0 C 22,0 C 3,5 UV-I 1,0 C 58 % 67 % 29 % 1009,5 hPa 0,0 l/m 5,5 km/h (1 Bft) 0 min 6,7 km/h (2 Bft)
17.07.2009 12:06 24,0 C 22,3 C 3,5 UV-I 0,7 C 58 % 67 % 20 % 1009,5 hPa 0,0 l/m 5,5 km/h (1 Bft) 0 min 6,7 km/h (2 Bft)
17.07.2009 12:08 24,0 C 22,3 C 4,6 UV-I 1,7 C 58 % 67 % 49 % 1009,5 hPa 0,0 l/m 5,3 km/h (1 Bft) 0 min 8,2 km/h (2 Bft)
17.07.2009 12:10 24,0 C 22,3 C 4,6 UV-I 1,7 C 58 % 66 % 49 % 1009,5 hPa 0,0 l/m 5,3 km/h (1 Bft) 0 min 3,1 km/h (1 Bft)
17.07.2009 12:12 24,0 C 22,4 C 4,6 UV-I 1,8 C 58 % 66 % 51 % 1009,5 hPa 0,0 l/m 5,5 km/h (1 Bft) 0 min 15,2 km/h (3 Bft)
17.07.2009 12:14 24,0 C 22,5 C 5,8 UV-I 2,1 C 58 % 65 % 60 % 1009,5 hPa 0,0 l/m 6,3 km/h (2 Bft) 0 min 11,3 km/h (2 Bft)
17.07.2009 12:16 24,0 C 22,7 C 5,8 UV-I 2,2 C 58 % 64 % 63 % 1009,5 hPa 0,0 l/m 6,5 km/h (2 Bft) 0 min 15,6 km/h (3 Bft)
17.07.2009 12:18 24,0 C 22,7 C 7,2 UV-I 2,5 C 58 % 64 % 71 % 1009,4 hPa 0,0 l/m 7,2 km/h (2 Bft) 0 min 7,0 km/h (2 Bft)
17.07.2009 12:20 24,0 C 22,8 C 7,2 UV-I 2,7 C 58 % 62 % 77 % 1009,4 hPa 0,0 l/m 7,2 km/h (2 Bft) 0 min 7,9 km/h (2 Bft)
17.07.2009 12:22 24,0 C 22,9 C 7,2 UV-I 2,8 C 58 % 62 % 80 % 1009,4 hPa 0,0 l/m 8,7 km/h (2 Bft) 0 min 14,9 km/h (3 Bft)
17.07.2009 12:24 24,0 C 23,1 C 7,2 UV-I 2,8 C 57 % 62 % 80 % 1009,4 hPa 0,0 l/m 8,4 km/h (2 Bft) 0 min 6,5 km/h (2 Bft)
17.07.2009 12:26 24,0 C 23,0 C 7,2 UV-I 3,3 C 57 % 61 % 94 % 1009,4 hPa 0,0 l/m 7,9 km/h (2 Bft) 2 min 10,6 km/h (2 Bft)
17.07.2009 12:28 24,0 C 23,1 C 8,0 UV-I 3,4 C 57 % 62 % 97 % 1009,4 hPa 0,0 l/m 8,2 km/h (2 Bft) 2 min 14,4 km/h (3 Bft)
17.07.2009 12:30 24,0 C 23,2 C 8,0 UV-I 3,2 C 57 % 62 % 91 % 1009,4 hPa 0,0 l/m 7,5 km/h (2 Bft) 2 min 3,6 km/h (1 Bft)
17.07.2009 12:32 24,0 C 23,3 C 8,0 UV-I 2,6 C 57 % 60 % 74 % 1009,4 hPa 0,0 l/m 7,2 km/h (2 Bft) 0 min 10,8 km/h (2 Bft)
17.07.2009 12:34 24,0 C 23,2 C 3,5 UV-I 2,3 C 57 % 61 % 66 % 1009,4 hPa 0,0 l/m 7,2 km/h (2 Bft) 0 min 12,8 km/h (3 Bft)
17.07.2009 12:36 24,1 C 23,3 C 3,5 UV-I 2,4 C 57 % 61 % 69 % 1009,4 hPa 0,0 l/m 6,7 km/h (2 Bft) 0 min 0,0 km/h (0 Bft)
17.07.2009 12:38 24,1 C 23,5 C 7,7 UV-I 2,8 C 57 % 60 % 80 % 1009,5 hPa 0,0 l/m 6,3 km/h (2 Bft) 0 min 10,3 km/h (2 Bft)
17.07.2009 12:40 24,1 C 23,7 C 7,7 UV-I 3,2 C 57 % 59 % 91 % 1009,5 hPa 0,0 l/m 6,3 km/h (2 Bft) 2 min 11,5 km/h (2 Bft)
17.07.2009 12:42 24,1 C 23,8 C 7,7 UV-I 3,5 C 57 % 58 % 100 % 1009,5 hPa 0,0 l/m 6,3 km/h (2 Bft) 2 min 8,4 km/h (2 Bft)
17.07.2009 12:44 24,1 C 23,8 C 6,8 UV-I 3,9 C 57 % 58 % 100 % 1009,5 hPa 0,0 l/m 6,7 km/h (2 Bft) 2 min 23,3 km/h (4 Bft)
17.07.2009 12:46 24,1 C 23,9 C 6,0 UV-I 3,9 C 57 % 56 % 100 % 1009,5 hPa 0,0 l/m 6,7 km/h (2 Bft) 2 min 14,2 km/h (3 Bft)
17.07.2009 12:48 24,1 C 23,9 C 6,0 UV-I 3,7 C 57 % 56 % 100 % 1009,5 hPa 0,0 l/m 7,7 km/h (2 Bft) 2 min 9,4 km/h (2 Bft)
17.07.2009 12:50 24,1 C 23,9 C 6,0 UV-I 3,3 C 57 % 56 % 94 % 1009,5 hPa 0,0 l/m 7,9 km/h (2 Bft) 2 min 11,1 km/h (2 Bft)
17.07.2009 12:52 24,1 C 24,0 C 6,0 UV-I 2,7 C 56 % 56 % 77 % 1009,5 hPa 0,0 l/m 8,7 km/h (2 Bft) 0 min 7,0 km/h (2 Bft)
17.07.2009 12:54 24,2 C 24,1 C 5,1 UV-I 2,3 C 56 % 57 % 66 % 1009,5 hPa 0,0 l/m 8,7 km/h (2 Bft) 0 min 14,4 km/h (3 Bft)
17.07.2009 12:56 24,2 C 24,0 C 5,1 UV-I 2,6 C 56 % 56 % 74 % 1009,5 hPa 0,0 l/m 7,7 km/h (2 Bft) 0 min 7,2 km/h (2 Bft)
17.07.2009 12:58 24,2 C 24,0 C 5,0 UV-I 2,7 C 56 % 56 % 77 % 1009,1 hPa 0,0 l/m 7,5 km/h (2 Bft) 0 min 7,0 km/h (2 Bft)
17.07.2009 13:00 24,2 C 24,1 C 5,0 UV-I 2,4 C 56 % 56 % 69 % 1009,1 hPa 0,0 l/m 7,0 km/h (2 Bft) 0 min 14,0 km/h (3 Bft)
17.07.2009 13:02 24,2 C 24,2 C 5,0 UV-I 2,1 C 56 % 56 % 60 % 1009,1 hPa 0,0 l/m 7,0 km/h (2 Bft) 0 min 9,6 km/h (2 Bft)
17.07.2009 13:04 24,2 C 24,2 C 5,2 UV-I 2,1 C 56 % 56 % 60 % 1009,1 hPa 0,0 l/m 7,5 km/h (2 Bft) 0 min 9,1 km/h (2 Bft)
17.07.2009 13:06 24,2 C 24,3 C 5,2 UV-I 2,2 C 56 % 54 % 63 % 1009,1 hPa 0,0 l/m 7,9 km/h (2 Bft) 0 min 15,2 km/h (3 Bft)
17.07.2009 13:08 24,2 C 24,3 C 5,2 UV-I 2,6 C 56 % 53 % 74 % 1009,1 hPa 0,0 l/m 8,7 km/h (2 Bft) 0 min 8,7 km/h (2 Bft)
17.07.2009 13:10 24,2 C 24,3 C 5,2 UV-I 2,6 C 55 % 53 % 74 % 1009,1 hPa 0,0 l/m 9,6 km/h (2 Bft) 0 min 11,1 km/h (2 Bft)
17.07.2009 13:12 24,2 C 24,2 C 5,2 UV-I 2,5 C 55 % 53 % 71 % 1009,1 hPa 0,0 l/m 9,6 km/h (2 Bft) 0 min 8,7 km/h (2 Bft)
17.07.2009 13:16 24,2 C 24,3 C 6,3 UV-I 2,9 C 55 % 52 % 83 % 1009,1 hPa 0,0 l/m 8,9 km/h (2 Bft) 2 min 12,8 km/h (3 Bft)
17.07.2009 13:18 24,2 C 24,2 C 5,6 UV-I 2,9 C 55 % 53 % 83 % 1009,2 hPa 0,0 l/m 8,9 km/h (2 Bft) 2 min 17,1 km/h (3 Bft)
17.07.2009 13:20 24,2 C 24,1 C 5,6 UV-I 2,5 C 54 % 53 % 71 % 1009,2 hPa 0,0 l/m 8,2 km/h (2 Bft) 0 min 14,0 km/h (3 Bft)
17.07.2009 13:22 24,2 C 24,0 C 5,6 UV-I 2,2 C 54 % 52 % 63 % 1009,2 hPa 0,0 l/m 7,9 km/h (2 Bft) 0 min 6,5 km/h (2 Bft)
17.07.2009 13:24 24,2 C 24,0 C 4,0 UV-I 1,6 C 54 % 52 % 46 % 1009,2 hPa 0,0 l/m 8,2 km/h (2 Bft) 0 min 6,5 km/h (2 Bft)
17.07.2009 13:26 24,2 C 24,0 C 4,0 UV-I 1,3 C 54 % 51 % 37 % 1009,2 hPa 0,0 l/m 7,9 km/h (2 Bft) 0 min 8,4 km/h (2 Bft)
17.07.2009 13:28 24,3 C 24,1 C 6,1 UV-I 1,4 C 54 % 52 % 40 % 1009,2 hPa 0,0 l/m 8,7 km/h (2 Bft) 0 min 22,1 km/h (4 Bft)
17.07.2009 13:30 24,3 C 24,1 C 6,1 UV-I 1,5 C 54 % 52 % 43 % 1009,2 hPa 0,0 l/m 8,9 km/h (2 Bft) 0 min 14,9 km/h (3 Bft)
17.07.2009 13:32 24,3 C 24,2 C 6,1 UV-I 1,3 C 54 % 53 % 37 % 1009,2 hPa 0,0 l/m 8,7 km/h (2 Bft) 0 min 5,8 km/h (2 Bft)
17.07.2009 13:34 24,3 C 24,2 C 5,1 UV-I 1,3 C 54 % 53 % 37 % 1009,2 hPa 0,0 l/m 8,4 km/h (2 Bft) 0 min 8,2 km/h (2 Bft)
17.07.2009 13:36 24,2 C 24,2 C 5,1 UV-I 1,5 C 54 % 53 % 43 % 1009,2 hPa 0,0 l/m 7,7 km/h (2 Bft) 0 min 3,1 km/h (1 Bft)
17.07.2009 13:38 24,2 C 24,3 C 7,5 UV-I 1,9 C 54 % 52 % 54 % 1009,5 hPa 0,0 l/m 7,7 km/h (2 Bft) 0 min 11,1 km/h (2 Bft)
17.07.2009 13:40 24,4 C 24,3 C 7,5 UV-I 2,3 C 54 % 52 % 66 % 1009,5 hPa 0,0 l/m 7,5 km/h (2 Bft) 0 min 15,9 km/h (3 Bft)
17.07.2009 13:42 24,2 C 24,3 C 7,5 UV-I 2,7 C 54 % 52 % 77 % 1009,5 hPa 0,0 l/m 8,4 km/h (2 Bft) 0 min 11,8 km/h (2 Bft)
17.07.2009 13:44 24,4 C 24,4 C 7,5 UV-I 2,7 C 53 % 51 % 77 % 1009,5 hPa 0,0 l/m 8,7 km/h (2 Bft) 0 min 9,4 km/h (2 Bft)
17.07.2009 13:46 24,4 C 24,5 C 7,5 UV-I 2,9 C 53 % 52 % 83 % 1009,5 hPa 0,0 l/m 8,9 km/h (2 Bft) 2 min 24,5 km/h (4 Bft)
17.07.2009 13:48 24,4 C 24,4 C 6,4 UV-I 3,2 C 53 % 50 % 91 % 1009,5 hPa 0,0 l/m 8,4 km/h (2 Bft) 2 min 14,2 km/h (3 Bft)
17.07.2009 13:50 24,4 C 24,5 C 6,4 UV-I 3,0 C 53 % 50 % 86 % 1009,5 hPa 0,0 l/m 8,7 km/h (2 Bft) 2 min 7,7 km/h (2 Bft)
17.07.2009 13:52 24,4 C 24,4 C 6,7 UV-I 3,1 C 53 % 49 % 89 % 1009,5 hPa 0,0 l/m 7,5 km/h (2 Bft) 2 min 11,3 km/h (2 Bft)
17.07.2009 13:54 24,4 C 24,5 C 6,7 UV-I 2,9 C 53 % 49 % 83 % 1009,5 hPa 0,0 l/m 7,2 km/h (2 Bft) 2 min 7,9 km/h (2 Bft)
17.07.2009 13:56 24,4 C 24,5 C 6,7 UV-I 2,9 C 53 % 49 % 83 % 1009,5 hPa 0,0 l/m 7,5 km/h (2 Bft) 2 min 14,7 km/h (3 Bft)
17.07.2009 14:00 24,4 C 24,5 C 5,9 UV-I 2,4 C 52 % 49 % 69 % 1009,5 hPa 0,0 l/m 7,9 km/h (2 Bft) 0 min 15,6 km/h (3 Bft)
17.07.2009 14:02 24,4 C 24,4 C 5,9 UV-I 2,3 C 52 % 48 % 66 % 1009,5 hPa 0,0 l/m 9,1 km/h (2 Bft) 0 min 18,3 km/h (3 Bft)
17.07.2009 14:04 24,5 C 24,5 C 5,9 UV-I 2,1 C 52 % 48 % 60 % 1009,5 hPa 0,0 l/m 9,1 km/h (2 Bft) 0 min 10,3 km/h (2 Bft)
17.07.2009 14:06 24,5 C 24,5 C 6,8 UV-I 2,1 C 52 % 47 % 60 % 1009,5 hPa 0,0 l/m 9,4 km/h (2 Bft) 0 min 7,2 km/h (2 Bft)
17.07.2009 14:08 24,5 C 24,4 C 6,8 UV-I 2,2 C 52 % 46 % 63 % 1009,5 hPa 0,0 l/m 9,9 km/h (2 Bft) 0 min 10,6 km/h (2 Bft)
17.07.2009 14:10 24,5 C 24,3 C 6,8 UV-I 2,1 C 52 % 46 % 60 % 1009,5 hPa 0,0 l/m 10,1 km/h (2 Bft) 0 min 17,6 km/h (3 Bft)
17.07.2009 14:12 24,5 C 24,3 C 6,8 UV-I 1,8 C 51 % 46 % 51 % 1009,5 hPa 0,0 l/m 10,8 km/h (2 Bft) 0 min 10,8 km/h (2 Bft)
17.07.2009 14:14 24,6 C 24,2 C 5,9 UV-I 1,8 C 51 % 46 % 51 % 1009,5 hPa 0,0 l/m 10,1 km/h (2 Bft) 0 min 13,5 km/h (3 Bft)
17.07.2009 14:16 24,6 C 24,2 C 5,9 UV-I 1,8 C 51 % 45 % 51 % 1009,5 hPa 0,0 l/m 9,9 km/h (2 Bft) 0 min 14,9 km/h (3 Bft)
17.07.2009 14:18 24,6 C 24,1 C 6,3 UV-I 1,9 C 51 % 45 % 54 % 1010,0 hPa 0,0 l/m 10,3 km/h (2 Bft) 0 min 15,9 km/h (3 Bft)
17.07.2009 14:20 24,6 C 24,1 C 6,3 UV-I 1,7 C 50 % 46 % 49 % 1010,0 hPa 0,0 l/m 10,6 km/h (2 Bft) 0 min 18,3 km/h (3 Bft)
17.07.2009 14:22 24,6 C 24,0 C 6,3 UV-I 1,6 C 50 % 47 % 46 % 1010,0 hPa 0,0 l/m 8,9 km/h (2 Bft) 0 min 8,4 km/h (2 Bft)
17.07.2009 14:24 24,6 C 24,1 C 4,9 UV-I 1,3 C 50 % 46 % 37 % 1010,0 hPa 0,0 l/m 8,7 km/h (2 Bft) 0 min 10,1 km/h (2 Bft)
17.07.2009 14:26 24,6 C 24,0 C 4,9 UV-I 1,2 C 50 % 47 % 34 % 1010,0 hPa 0,0 l/m 9,1 km/h (2 Bft) 0 min 18,5 km/h (3 Bft)
17.07.2009 14:28 24,7 C 24,0 C 5,2 UV-I 1,2 C 50 % 47 % 34 % 1010,0 hPa 0,0 l/m 8,9 km/h (2 Bft) 0 min 6,5 km/h (2 Bft)
17.07.2009 14:32 24,7 C 24,1 C 3,9 UV-I 0,8 C 50 % 48 % 23 % 1010,0 hPa 0,0 l/m 7,9 km/h (2 Bft) 0 min 7,9 km/h (2 Bft)
17.07.2009 14:34 24,7 C 24,0 C 3,9 UV-I 0,8 C 49 % 48 % 23 % 1010,0 hPa 0,0 l/m 7,9 km/h (2 Bft) 0 min 7,2 km/h (2 Bft)
17.07.2009 14:36 24,7 C 23,9 C 3,9 UV-I 0,7 C 49 % 48 % 20 % 1010,0 hPa 0,0 l/m 7,2 km/h (2 Bft) 0 min 7,9 km/h (2 Bft)
17.07.2009 14:38 24,7 C 23,8 C 3,5 UV-I 0,6 C 49 % 48 % 17 % 1009,7 hPa 0,0 l/m 7,2 km/h (2 Bft) 0 min 16,4 km/h (3 Bft)
17.07.2009 14:40 24,7 C 23,9 C 3,5 UV-I 0,3 C 49 % 48 % 9 % 1009,7 hPa 0,0 l/m 6,5 km/h (2 Bft) 0 min 9,4 km/h (2 Bft)
17.07.2009 14:42 24,7 C 23,7 C 3,5 UV-I 0,4 C 49 % 47 % 11 % 1009,7 hPa 0,0 l/m 6,3 km/h (2 Bft) 0 min 9,1 km/h (2 Bft)
17.07.2009 14:44 24,8 C 23,6 C 3,9 UV-I 0,4 C 49 % 47 % 11 % 1009,7 hPa 0,0 l/m 7,0 km/h (2 Bft) 0 min 6,5 km/h (2 Bft)
17.07.2009 14:46 24,8 C 23,5 C 3,9 UV-I 0,4 C 49 % 46 % 11 % 1009,7 hPa 0,0 l/m 7,9 km/h (2 Bft) 0 min 16,6 km/h (3 Bft)
17.07.2009 14:48 24,8 C 23,4 C 3,5 UV-I 0,2 C 49 % 46 % 6 % 1009,7 hPa 0,0 l/m 7,9 km/h (2 Bft) 0 min 10,1 km/h (2 Bft)
17.07.2009 14:50 24,8 C 23,4 C 3,5 UV-I 0,0 C 49 % 47 % 0 % 1009,7 hPa 0,0 l/m 8,4 km/h (2 Bft) 0 min 10,3 km/h (2 Bft)
17.07.2009 14:52 24,8 C 23,3 C 3,5 UV-I 0,1 C 49 % 47 % 3 % 1009,7 hPa 0,0 l/m 8,4 km/h (2 Bft) 0 min 4,8 km/h (1 Bft)
17.07.2009 14:54 24,8 C 23,3 C 3,5 UV-I 0,1 C 49 % 47 % 3 % 1009,7 hPa 0,0 l/m 7,0 km/h (2 Bft) 0 min 5,8 km/h (2 Bft)
17.07.2009 14:56 24,7 C 23,4 C 5,2 UV-I 0,1 C 49 % 47 % 3 % 1009,7 hPa 0,0 l/m 6,5 km/h (2 Bft) 0 min 10,1 km/h (2 Bft)
17.07.2009 14:58 24,8 C 23,5 C 5,2 UV-I 0,4 C 49 % 47 % 11 % 1009,6 hPa 0,0 l/m 6,5 km/h (2 Bft) 0 min 5,1 km/h (1 Bft)
17.07.2009 15:00 24,8 C 23,5 C 5,2 UV-I 0,6 C 48 % 48 % 17 % 1009,6 hPa 0,0 l/m 6,5 km/h (2 Bft) 0 min 7,2 km/h (2 Bft)
17.07.2009 15:02 24,8 C 23,4 C 5,2 UV-I 0,9 C 48 % 47 % 26 % 1009,6 hPa 0,0 l/m 7,0 km/h (2 Bft) 0 min 11,5 km/h (2 Bft)
17.07.2009 15:06 24,8 C 23,4 C 5,8 UV-I 1,0 C 48 % 47 % 29 % 1009,6 hPa 0,0 l/m 8,2 km/h (2 Bft) 0 min 12,0 km/h (2 Bft)
17.07.2009 15:08 24,8 C 23,4 C 5,8 UV-I 1,6 C 48 % 47 % 46 % 1009,6 hPa 0,0 l/m 7,0 km/h (2 Bft) 0 min 10,8 km/h (2 Bft)
17.07.2009 15:10 24,8 C 23,5 C 5,8 UV-I 1,5 C 48 % 48 % 43 % 1009,6 hPa 0,0 l/m 7,0 km/h (2 Bft) 0 min 6,7 km/h (2 Bft)
17.07.2009 15:12 24,8 C 23,5 C 5,8 UV-I 1,5 C 48 % 48 % 43 % 1009,6 hPa 0,0 l/m 7,0 km/h (2 Bft) 0 min 5,1 km/h (1 Bft)
17.07.2009 15:14 24,8 C 23,4 C 4,4 UV-I 1,6 C 48 % 48 % 46 % 1009,6 hPa 0,0 l/m 6,3 km/h (2 Bft) 0 min 10,1 km/h (2 Bft)
17.07.2009 15:16 24,8 C 23,3 C 4,4 UV-I 1,5 C 48 % 48 % 43 % 1009,6 hPa 0,0 l/m 6,7 km/h (2 Bft) 0 min 12,0 km/h (2 Bft)
17.07.2009 15:18 24,8 C 23,3 C 4,2 UV-I 1,4 C 48 % 48 % 40 % 1010,1 hPa 0,0 l/m 7,0 km/h (2 Bft) 0 min 11,5 km/h (2 Bft)
17.07.2009 15:20 24,8 C 23,3 C 4,2 UV-I 1,2 C 48 % 48 % 34 % 1010,1 hPa 0,0 l/m 6,3 km/h (2 Bft) 0 min 4,6 km/h (1 Bft)
17.07.2009 15:22 24,8 C 23,3 C 4,2 UV-I 1,4 C 48 % 48 % 40 % 1010,1 hPa 0,0 l/m 6,0 km/h (2 Bft) 0 min 11,8 km/h (2 Bft)
17.07.2009 15:24 24,8 C 23,3 C 5,2 UV-I 1,4 C 48 % 47 % 40 % 1010,1 hPa 0,0 l/m 7,0 km/h (2 Bft) 0 min 16,1 km/h (3 Bft)
17.07.2009 15:26 24,8 C 23,3 C 5,2 UV-I 1,4 C 48 % 48 % 40 % 1010,1 hPa 0,0 l/m 6,7 km/h (2 Bft) 0 min 9,1 km/h (2 Bft)
17.07.2009 15:28 24,8 C 23,5 C 5,2 UV-I 1,1 C 48 % 48 % 31 % 1010,1 hPa 0,0 l/m 6,3 km/h (2 Bft) 0 min 5,3 km/h (1 Bft)
17.07.2009 15:30 24,8 C 23,5 C 5,2 UV-I 1,4 C 48 % 48 % 40 % 1010,1 hPa 0,0 l/m 6,5 km/h (2 Bft) 0 min 4,6 km/h (1 Bft)
17.07.2009 15:32 24,8 C 23,5 C 5,2 UV-I 2,0 C 48 % 48 % 57 % 1010,1 hPa 0,0 l/m 6,7 km/h (2 Bft) 0 min 11,3 km/h (2 Bft)
17.07.2009 15:34 24,8 C 23,7 C 6,6 UV-I 3,0 C 48 % 48 % 86 % 1010,1 hPa 0,0 l/m 5,3 km/h (1 Bft) 2 min 6,0 km/h (2 Bft)
17.07.2009 15:36 24,9 C 23,7 C 6,6 UV-I 3,0 C 48 % 47 % 86 % 1010,1 hPa 0,0 l/m 5,3 km/h (1 Bft) 2 min 6,0 km/h (2 Bft)
17.07.2009 15:38 24,9 C 23,7 C 5,2 UV-I 3,0 C 48 % 48 % 86 % 1010,0 hPa 0,0 l/m 5,1 km/h (1 Bft) 2 min 9,6 km/h (2 Bft)
17.07.2009 15:40 24,9 C 23,8 C 5,2 UV-I 2,7 C 48 % 47 % 77 % 1010,0 hPa 0,0 l/m 4,8 km/h (1 Bft) 0 min 5,3 km/h (1 Bft)
17.07.2009 15:42 24,9 C 23,9 C 5,2 UV-I 2,4 C 48 % 48 % 69 % 1010,0 hPa 0,0 l/m 5,1 km/h (1 Bft) 0 min 5,1 km/h (1 Bft)
17.07.2009 15:44 25,0 C 24,1 C 5,2 UV-I 2,4 C 48 % 48 % 69 % 1010,0 hPa 0,0 l/m 5,3 km/h (1 Bft) 0 min 4,6 km/h (1 Bft)
17.07.2009 15:46 25,0 C 24,0 C 6,9 UV-I 2,9 C 48 % 48 % 83 % 1010,0 hPa 0,0 l/m 5,1 km/h (1 Bft) 2 min 4,6 km/h (1 Bft)
17.07.2009 15:48 25,0 C 24,3 C 6,9 UV-I 3,2 C 48 % 49 % 91 % 1010,0 hPa 0,0 l/m 4,8 km/h (1 Bft) 2 min 4,8 km/h (1 Bft)
17.07.2009 15:50 25,1 C 24,4 C 6,9 UV-I 3,6 C 48 % 48 % 100 % 1010,0 hPa 0,0 l/m 5,1 km/h (1 Bft) 2 min 6,0 km/h (2 Bft)
17.07.2009 15:52 25,1 C 24,7 C 7,2 UV-I 3,8 C 48 % 47 % 100 % 1010,0 hPa 0,0 l/m 4,8 km/h (1 Bft) 2 min 4,6 km/h (1 Bft)
17.07.2009 15:54 25,1 C 24,7 C 7,2 UV-I 4,3 C 48 % 46 % 100 % 1010,0 hPa 0,0 l/m 5,1 km/h (1 Bft) 2 min 9,6 km/h (2 Bft)
17.07.2009 15:56 25,2 C 24,8 C 7,2 UV-I 4,5 C 48 % 46 % 100 % 1010,0 hPa 0,0 l/m 5,3 km/h (1 Bft) 2 min 10,3 km/h (2 Bft)
17.07.2009 15:58 25,2 C 24,9 C 7,2 UV-I 4,5 C 48 % 46 % 100 % 1009,9 hPa 0,0 l/m 5,8 km/h (2 Bft) 2 min 5,8 km/h (2 Bft)
17.07.2009 16:00 25,2 C 24,9 C 7,2 UV-I 4,3 C 48 % 47 % 100 % 1009,9 hPa 0,0 l/m 6,7 km/h (2 Bft) 2 min 9,6 km/h (2 Bft)
17.07.2009 16:02 25,2 C 25,0 C 7,0 UV-I 4,1 C 48 % 46 % 100 % 1009,9 hPa 0,0 l/m 7,0 km/h (2 Bft) 2 min 4,8 km/h (1 Bft)
17.07.2009 16:04 25,4 C 25,0 C 7,0 UV-I 4,3 C 48 % 46 % 100 % 1009,9 hPa 0,0 l/m 7,5 km/h (2 Bft) 2 min 15,6 km/h (3 Bft)
17.07.2009 16:06 25,4 C 25,0 C 5,3 UV-I 4,3 C 48 % 46 % 100 % 1009,9 hPa 0,0 l/m 8,4 km/h (2 Bft) 2 min 21,9 km/h (4 Bft)
17.07.2009 16:08 25,4 C 25,1 C 5,3 UV-I 3,9 C 48 % 45 % 100 % 1009,9 hPa 0,0 l/m 7,9 km/h (2 Bft) 2 min 4,8 km/h (1 Bft)
17.07.2009 16:10 25,5 C 25,1 C 5,3 UV-I 3,0 C 48 % 45 % 86 % 1009,9 hPa 0,0 l/m 7,9 km/h (2 Bft) 2 min 8,2 km/h (2 Bft)
17.07.2009 16:12 25,5 C 25,1 C 5,3 UV-I 2,4 C 47 % 44 % 69 % 1009,9 hPa 0,0 l/m 7,5 km/h (2 Bft) 0 min 5,8 km/h (2 Bft)
17.07.2009 16:14 25,6 C 25,1 C 5,7 UV-I 2,6 C 47 % 44 % 74 % 1009,9 hPa 0,0 l/m 7,9 km/h (2 Bft) 0 min 12,8 km/h (3 Bft)
17.07.2009 16:16 25,6 C 25,0 C 5,1 UV-I 2,8 C 47 % 44 % 80 % 1009,9 hPa 0,0 l/m 7,9 km/h (2 Bft) 0 min 10,8 km/h (2 Bft)
17.07.2009 16:18 25,6 C 24,9 C 5,1 UV-I 2,6 C 47 % 43 % 74 % 1010,1 hPa 0,0 l/m 7,5 km/h (2 Bft) 0 min 27,9 km/h (4 Bft)
17.07.2009 16:20 25,7 C 24,9 C 5,1 UV-I 2,0 C 47 % 44 % 57 % 1010,1 hPa 0,0 l/m 8,4 km/h (2 Bft) 0 min 13,2 km/h (3 Bft)
17.07.2009 16:22 25,7 C 24,8 C 5,1 UV-I 1,4 C 47 % 43 % 40 % 1010,1 hPa 0,0 l/m 8,2 km/h (2 Bft) 0 min 14,0 km/h (3 Bft)
17.07.2009 16:24 25,8 C 24,7 C 4,2 UV-I 1,1 C 47 % 43 % 31 % 1010,1 hPa 0,0 l/m 9,1 km/h (2 Bft) 0 min 27,9 km/h (4 Bft)
17.07.2009 16:26 25,8 C 24,7 C 4,2 UV-I 0,7 C 46 % 44 % 20 % 1010,1 hPa 0,0 l/m 8,9 km/h (2 Bft) 0 min 11,8 km/h (2 Bft)
17.07.2009 16:28 25,8 C 24,8 C 5,3 UV-I 0,6 C 46 % 44 % 17 % 1010,1 hPa 0,0 l/m 8,4 km/h (2 Bft) 0 min 17,6 km/h (3 Bft)
17.07.2009 16:30 25,8 C 24,9 C 5,3 UV-I 0,9 C 46 % 44 % 26 % 1010,1 hPa 0,0 l/m 7,2 km/h (2 Bft) 0 min 2,4 km/h (1 Bft)
17.07.2009 16:32 25,9 C 25,0 C 5,3 UV-I 1,5 C 46 % 44 % 43 % 1010,1 hPa 0,0 l/m 6,5 km/h (2 Bft) 0 min 11,8 km/h (2 Bft)
17.07.2009 16:34 25,9 C 25,1 C 7,1 UV-I 1,9 C 46 % 45 % 54 % 1010,1 hPa 0,0 l/m 5,3 km/h (1 Bft) 0 min 3,6 km/h (1 Bft)
17.07.2009 16:36 25,9 C 25,1 C 7,1 UV-I 2,0 C 46 % 44 % 57 % 1010,1 hPa 0,0 l/m 4,8 km/h (1 Bft) 0 min 7,5 km/h (2 Bft)
17.07.2009 16:38 26,0 C 25,0 C 6,1 UV-I 2,4 C 46 % 43 % 69 % 1009,8 hPa 0,0 l/m 4,6 km/h (1 Bft) 0 min 7,7 km/h (2 Bft)
17.07.2009 16:40 26,0 C 24,9 C 6,1 UV-I 2,4 C 46 % 44 % 69 % 1009,8 hPa 0,0 l/m 4,1 km/h (1 Bft) 0 min 7,2 km/h (2 Bft)
17.07.2009 16:42 26,0 C 24,7 C 6,1 UV-I 2,2 C 46 % 44 % 63 % 1009,8 hPa 0,0 l/m 5,1 km/h (1 Bft) 0 min 12,8 km/h (3 Bft)
17.07.2009 16:44 26,0 C 24,7 C 3,3 UV-I 1,4 C 46 % 44 % 40 % 1009,8 hPa 0,0 l/m 5,1 km/h (1 Bft) 0 min 9,6 km/h (2 Bft)
17.07.2009 16:46 26,0 C 24,8 C 5,3 UV-I 1,0 C 45 % 44 % 29 % 1009,8 hPa 0,0 l/m 5,3 km/h (1 Bft) 0 min 3,4 km/h (1 Bft)
17.07.2009 16:48 26,0 C 24,8 C 5,3 UV-I 1,3 C 45 % 45 % 37 % 1009,8 hPa 0,0 l/m 5,1 km/h (1 Bft) 0 min 0,0 km/h (0 Bft)
17.07.2009 16:50 26,1 C 24,8 C 5,3 UV-I 1,3 C 45 % 45 % 37 % 1009,8 hPa 0,0 l/m 5,1 km/h (1 Bft) 0 min 0,0 km/h (0 Bft)
17.07.2009 16:52 26,1 C 24,9 C 5,3 UV-I 1,6 C 45 % 45 % 46 % 1009,8 hPa 0,0 l/m 4,6 km/h (1 Bft) 0 min 3,8 km/h (1 Bft)
17.07.2009 16:54 26,1 C 24,8 C 7,8 UV-I 2,4 C 45 % 44 % 69 % 1009,8 hPa 0,0 l/m 3,8 km/h (1 Bft) 0 min 5,3 km/h (1 Bft)
17.07.2009 16:56 26,1 C 24,8 C 7,8 UV-I 2,6 C 45 % 45 % 74 % 1009,8 hPa 0,0 l/m 3,6 km/h (1 Bft) 0 min 5,8 km/h (2 Bft)
17.07.2009 16:58 26,1 C 24,9 C 5,4 UV-I 2,3 C 45 % 45 % 66 % 1009,3 hPa 0,0 l/m 3,6 km/h (1 Bft) 0 min 0,0 km/h (0 Bft)
17.07.2009 17:00 26,2 C 25,0 C 5,4 UV-I 2,4 C 45 % 44 % 69 % 1009,3 hPa 0,0 l/m 5,1 km/h (1 Bft) 0 min 10,6 km/h (2 Bft)
17.07.2009 17:04 26,2 C 25,0 C 3,9 UV-I 2,5 C 45 % 45 % 71 % 1009,3 hPa 0,0 l/m 5,5 km/h (1 Bft) 0 min 6,3 km/h (2 Bft)
17.07.2009 17:06 26,2 C 25,1 C 3,8 UV-I 2,4 C 45 % 45 % 69 % 1009,3 hPa 0,0 l/m 6,0 km/h (2 Bft) 0 min 17,8 km/h (3 Bft)
17.07.2009 17:08 26,2 C 25,2 C 3,8 UV-I 2,3 C 45 % 45 % 66 % 1009,3 hPa 0,0 l/m 6,5 km/h (2 Bft) 0 min 8,4 km/h (2 Bft)
17.07.2009 17:10 26,2 C 25,2 C 3,8 UV-I 2,5 C 45 % 45 % 71 % 1009,3 hPa 0,0 l/m 6,7 km/h (2 Bft) 0 min 6,7 km/h (2 Bft)
17.07.2009 17:12 26,3 C 25,2 C 3,8 UV-I 2,2 C 45 % 45 % 63 % 1009,3 hPa 0,0 l/m 6,0 km/h (2 Bft) 0 min 8,2 km/h (2 Bft)
17.07.2009 17:14 26,3 C 25,2 C 4,2 UV-I 2,1 C 45 % 44 % 60 % 1009,3 hPa 0,0 l/m 6,0 km/h (2 Bft) 0 min 7,9 km/h (2 Bft)
17.07.2009 17:16 26,2 C 25,1 C 2,9 UV-I 2,1 C 45 % 45 % 60 % 1009,3 hPa 0,0 l/m 6,5 km/h (2 Bft) 0 min 6,5 km/h (2 Bft)
17.07.2009 17:18 26,2 C 25,0 C 2,9 UV-I 1,8 C 45 % 44 % 51 % 1009,4 hPa 0,0 l/m 6,0 km/h (2 Bft) 0 min 8,2 km/h (2 Bft)
17.07.2009 17:20 26,2 C 24,9 C 2,9 UV-I 1,4 C 45 % 45 % 40 % 1009,4 hPa 0,0 l/m 6,0 km/h (2 Bft) 0 min 9,9 km/h (2 Bft)
17.07.2009 17:22 26,4 C 24,8 C 2,9 UV-I 1,0 C 45 % 45 % 29 % 1009,4 hPa 0,0 l/m 5,3 km/h (1 Bft) 0 min 5,1 km/h (1 Bft)
17.07.2009 17:24 26,4 C 24,6 C 1,5 UV-I 0,7 C 45 % 45 % 20 % 1009,4 hPa 0,0 l/m 4,6 km/h (1 Bft) 0 min 5,3 km/h (1 Bft)
17.07.2009 17:26 26,2 C 24,6 C 1,5 UV-I 0,3 C 45 % 45 % 9 % 1009,4 hPa 0,0 l/m 4,6 km/h (1 Bft) 0 min 6,3 km/h (2 Bft)
17.07.2009 17:28 26,4 C 24,4 C 1,4 UV-I 0,0 C 45 % 45 % 0 % 1009,4 hPa 0,0 l/m 4,3 km/h (1 Bft) 0 min 6,5 km/h (2 Bft)
17.07.2009 17:30 26,4 C 24,4 C 1,4 UV-I 0,0 C 45 % 45 % 0 % 1009,4 hPa 0,0 l/m 4,3 km/h (1 Bft) 0 min 7,0 km/h (2 Bft)
17.07.2009 17:32 26,4 C 24,2 C 1,4 UV-I 0,0 C 45 % 45 % 0 % 1009,4 hPa 0,0 l/m 4,3 km/h (1 Bft) 0 min 11,3 km/h (2 Bft)
17.07.2009 17:34 26,4 C 24,1 C 1,2 UV-I 0,0 C 45 % 46 % 0 % 1009,4 hPa 0,0 l/m 5,1 km/h (1 Bft) 0 min 7,5 km/h (2 Bft)
17.07.2009 17:36 26,2 C 24,0 C 1,2 UV-I 0,0 C 45 % 46 % 0 % 1009,4 hPa 0,0 l/m 5,1 km/h (1 Bft) 0 min 5,3 km/h (1 Bft)
17.07.2009 17:38 26,2 C 24,0 C 1,2 UV-I 0,0 C 45 % 47 % 0 % 1009,5 hPa 0,0 l/m 4,8 km/h (1 Bft) 0 min 8,7 km/h (2 Bft)
17.07.2009 17:40 26,3 C 24,0 C 1,2 UV-I 0,0 C 45 % 47 % 0 % 1009,5 hPa 0,0 l/m 4,1 km/h (1 Bft) 0 min 4,1 km/h (1 Bft)
17.07.2009 17:42 26,2 C 24,0 C 1,2 UV-I 0,0 C 45 % 47 % 0 % 1009,5 hPa 0,0 l/m 3,6 km/h (1 Bft) 0 min 2,4 km/h (1 Bft)
17.07.2009 17:44 26,2 C 23,9 C 1,2 UV-I 0,0 C 45 % 47 % 0 % 1009,5 hPa 0,0 l/m 3,1 km/h (1 Bft) 0 min 3,8 km/h (1 Bft)
17.07.2009 17:46 26,3 C 23,8 C 1,2 UV-I 0,0 C 45 % 48 % 0 % 1009,5 hPa 0,0 l/m 2,9 km/h (1 Bft) 0 min 2,6 km/h (1 Bft)
17.07.2009 17:48 26,3 C 23,8 C 0,9 UV-I 0,0 C 45 % 48 % 0 % 1009,5 hPa 0,0 l/m 2,6 km/h (1 Bft) 0 min 0,0 km/h (0 Bft)
17.07.2009 17:52 26,3 C 23,6 C 0,9 UV-I 0,0 C 45 % 48 % 0 % 1009,5 hPa 0,0 l/m 2,6 km/h (1 Bft) 0 min 5,8 km/h (2 Bft)
17.07.2009 17:54 26,3 C 23,6 C 0,9 UV-I 0,0 C 45 % 48 % 0 % 1009,5 hPa 0,0 l/m 2,6 km/h (1 Bft) 0 min 3,1 km/h (1 Bft)
17.07.2009 17:56 26,2 C 23,5 C 0,9 UV-I 0,0 C 45 % 49 % 0 % 1009,5 hPa 0,0 l/m 2,9 km/h (1 Bft) 0 min 6,7 km/h (2 Bft)
17.07.2009 17:58 26,2 C 23,5 C 1,3 UV-I 0,0 C 45 % 49 % 0 % 1009,3 hPa 0,0 l/m 3,4 km/h (1 Bft) 0 min 9,4 km/h (2 Bft)
17.07.2009 18:00 26,2 C 23,4 C 1,3 UV-I 0,0 C 45 % 49 % 0 % 1009,3 hPa 0,0 l/m 3,4 km/h (1 Bft) 0 min 3,4 km/h (1 Bft)
17.07.2009 18:04 26,2 C 23,3 C 1,5 UV-I 0,0 C 45 % 49 % 0 % 1009,3 hPa 0,0 l/m 3,8 km/h (1 Bft) 0 min 11,3 km/h (2 Bft)
17.07.2009 18:08 26,1 C 23,3 C 1,9 UV-I 0,0 C 45 % 49 % 0 % 1009,3 hPa 0,0 l/m 3,4 km/h (1 Bft) 0 min 5,8 km/h (2 Bft)
17.07.2009 18:10 26,1 C 23,3 C 1,9 UV-I 0,0 C 45 % 49 % 0 % 1009,3 hPa 0,0 l/m 3,1 km/h (1 Bft) 0 min 4,8 km/h (1 Bft)
17.07.2009 18:12 26,1 C 23,3 C 1,9 UV-I 0,0 C 45 % 50 % 0 % 1009,3 hPa 0,0 l/m 2,6 km/h (1 Bft) 0 min 7,9 km/h (2 Bft)
17.07.2009 18:14 26,0 C 23,3 C 2,5 UV-I 0,0 C 45 % 50 % 0 % 1009,3 hPa 0,0 l/m 2,4 km/h (1 Bft) 0 min 0,0 km/h (0 Bft)
17.07.2009 18:16 26,0 C 23,3 C 2,5 UV-I 0,0 C 45 % 49 % 0 % 1009,3 hPa 0,0 l/m 1,7 km/h (1 Bft) 0 min 4,3 km/h (1 Bft)
17.07.2009 18:18 26,0 C 23,2 C 2,1 UV-I 0,1 C 45 % 49 % 3 % 1009,3 hPa 0,0 l/m 3,1 km/h (1 Bft) 0 min 14,2 km/h (3 Bft)
17.07.2009 18:20 26,0 C 23,2 C 2,1 UV-I 0,1 C 45 % 49 % 3 % 1009,3 hPa 0,0 l/m 3,1 km/h (1 Bft) 0 min 14,2 km/h (3 Bft)
17.07.2009 18:22 26,0 C 23,2 C 2,1 UV-I 0,2 C 45 % 50 % 6 % 1009,3 hPa 0,0 l/m 4,1 km/h (1 Bft) 0 min 5,3 km/h (1 Bft)
17.07.2009 18:24 26,0 C 23,2 C 1,9 UV-I 0,3 C 45 % 49 % 9 % 1009,3 hPa 0,0 l/m 4,8 km/h (1 Bft) 0 min 11,3 km/h (2 Bft)
17.07.2009 18:26 26,0 C 23,3 C 1,9 UV-I 0,2 C 45 % 50 % 6 % 1009,3 hPa 0,0 l/m 5,8 km/h (2 Bft) 0 min 5,3 km/h (1 Bft)
17.07.2009 18:28 25,9 C 23,2 C 1,9 UV-I 0,2 C 45 % 49 % 6 % 1009,3 hPa 0,0 l/m 5,8 km/h (2 Bft) 0 min 7,2 km/h (2 Bft)
17.07.2009 18:30 25,9 C 23,1 C 1,9 UV-I 0,2 C 45 % 49 % 6 % 1009,3 hPa 0,0 l/m 5,8 km/h (2 Bft) 0 min 3,6 km/h (1 Bft)
17.07.2009 18:32 25,9 C 23,0 C 1,1 UV-I 0,2 C 45 % 49 % 6 % 1009,3 hPa 0,0 l/m 5,5 km/h (1 Bft) 0 min 9,1 km/h (2 Bft)
17.07.2009 18:34 25,9 C 23,1 C 1,1 UV-I 0,0 C 45 % 49 % 0 % 1009,3 hPa 0,0 l/m 4,6 km/h (1 Bft) 0 min 3,6 km/h (1 Bft)
17.07.2009 18:38 25,8 C 23,0 C 0,9 UV-I 0,0 C 45 % 49 % 0 % 1009,2 hPa 0,0 l/m 4,3 km/h (1 Bft) 0 min 9,6 km/h (2 Bft)
17.07.2009 18:40 25,8 C 22,9 C 0,9 UV-I 0,0 C 45 % 49 % 0 % 1009,2 hPa 0,0 l/m 4,8 km/h (1 Bft) 0 min 15,2 km/h (3 Bft)
17.07.2009 18:42 25,8 C 22,8 C 0,9 UV-I 0,0 C 45 % 50 % 0 % 1009,2 hPa 0,0 l/m 5,1 km/h (1 Bft) 0 min 4,6 km/h (1 Bft)
17.07.2009 18:44 25,7 C 22,9 C 1,1 UV-I 0,0 C 45 % 50 % 0 % 1009,2 hPa 0,0 l/m 4,8 km/h (1 Bft) 0 min 6,5 km/h (2 Bft)
17.07.2009 18:46 25,7 C 22,8 C 1,1 UV-I 0,0 C 45 % 50 % 0 % 1009,2 hPa 0,0 l/m 4,8 km/h (1 Bft) 0 min 3,4 km/h (1 Bft)
17.07.2009 18:48 25,7 C 22,7 C 1,6 UV-I 0,0 C 45 % 50 % 0 % 1009,2 hPa 0,0 l/m 5,8 km/h (2 Bft) 0 min 6,7 km/h (2 Bft)
17.07.2009 18:50 25,7 C 22,7 C 1,6 UV-I 0,0 C 45 % 50 % 0 % 1009,2 hPa 0,0 l/m 6,3 km/h (2 Bft) 0 min 6,7 km/h (2 Bft)
17.07.2009 18:52 25,7 C 22,7 C 1,8 UV-I 0,0 C 45 % 51 % 0 % 1009,2 hPa 0,0 l/m 5,8 km/h (2 Bft) 0 min 7,2 km/h (2 Bft)
17.07.2009 18:56 25,6 C 22,7 C 1,8 UV-I 0,0 C 45 % 51 % 0 % 1009,2 hPa 0,0 l/m 5,3 km/h (1 Bft) 0 min 4,1 km/h (1 Bft)
17.07.2009 18:58 25,6 C 22,6 C 1,5 UV-I 0,0 C 45 % 51 % 0 % 1008,9 hPa 0,0 l/m 4,6 km/h (1 Bft) 0 min 4,3 km/h (1 Bft)
17.07.2009 19:00 25,6 C 22,6 C 1,5 UV-I 0,0 C 45 % 51 % 0 % 1008,9 hPa 0,0 l/m 3,8 km/h (1 Bft) 0 min 0,0 km/h (0 Bft)
17.07.2009 19:02 25,6 C 22,7 C 1,5 UV-I 0,0 C 45 % 51 % 0 % 1008,9 hPa 0,0 l/m 3,4 km/h (1 Bft) 0 min 2,6 km/h (1 Bft)
17.07.2009 19:04 25,6 C 22,6 C 1,2 UV-I 0,0 C 45 % 51 % 0 % 1008,9 hPa 0,0 l/m 2,4 km/h (1 Bft) 0 min 0,0 km/h (0 Bft)
17.07.2009 19:06 25,6 C 22,6 C 1,0 UV-I 0,0 C 45 % 51 % 0 % 1008,9 hPa 0,0 l/m 4,1 km/h (1 Bft) 0 min 8,4 km/h (2 Bft)
17.07.2009 19:08 25,5 C 22,6 C 1,0 UV-I 0,0 C 45 % 51 % 0 % 1008,9 hPa 0,0 l/m 4,1 km/h (1 Bft) 0 min 8,4 km/h (2 Bft)
17.07.2009 19:12 25,5 C 22,5 C 1,0 UV-I 0,0 C 46 % 51 % 0 % 1008,9 hPa 0,0 l/m 4,6 km/h (1 Bft) 0 min 7,2 km/h (2 Bft)
17.07.2009 19:14 25,5 C 22,5 C 1,3 UV-I 0,0 C 46 % 51 % 0 % 1008,9 hPa 0,0 l/m 5,3 km/h (1 Bft) 0 min 4,6 km/h (1 Bft)
17.07.2009 19:16 25,4 C 22,4 C 1,3 UV-I 0,0 C 46 % 51 % 0 % 1008,9 hPa 0,0 l/m 5,5 km/h (1 Bft) 0 min 6,3 km/h (2 Bft)
17.07.2009 19:18 25,4 C 22,4 C 1,3 UV-I 0,0 C 46 % 51 % 0 % 1008,9 hPa 0,0 l/m 5,1 km/h (1 Bft) 0 min 0,0 km/h (0 Bft)
17.07.2009 19:20 25,4 C 22,5 C 1,3 UV-I 0,0 C 46 % 52 % 0 % 1008,9 hPa 0,0 l/m 5,1 km/h (1 Bft) 0 min 0,0 km/h (0 Bft)
17.07.2009 19:24 25,4 C 22,4 C 1,2 UV-I 0,0 C 46 % 52 % 0 % 1008,9 hPa 0,0 l/m 4,8 km/h (1 Bft) 0 min 8,2 km/h (2 Bft)
17.07.2009 19:26 25,4 C 22,3 C 1,2 UV-I 0,0 C 46 % 52 % 0 % 1008,9 hPa 0,0 l/m 4,8 km/h (1 Bft) 0 min 4,6 km/h (1 Bft)
17.07.2009 19:28 25,4 C 22,3 C 1,2 UV-I 0,0 C 46 % 52 % 0 % 1008,9 hPa 0,0 l/m 3,8 km/h (1 Bft) 0 min 0,0 km/h (0 Bft)
17.07.2009 19:30 25,4 C 22,3 C 1,2 UV-I 0,0 C 46 % 52 % 0 % 1008,9 hPa 0,0 l/m 4,1 km/h (1 Bft) 0 min 7,9 km/h (2 Bft)
17.07.2009 19:32 25,4 C 22,3 C 1,2 UV-I 0,0 C 46 % 53 % 0 % 1008,9 hPa 0,0 l/m 4,1 km/h (1 Bft) 0 min 3,4 km/h (1 Bft)
17.07.2009 19:34 25,2 C 22,3 C 1,1 UV-I 0,0 C 46 % 52 % 0 % 1008,9 hPa 0,0 l/m 3,1 km/h (1 Bft) 0 min 0,0 km/h (0 Bft)
17.07.2009 19:36 25,2 C 22,3 C 1,1 UV-I 0,0 C 46 % 53 % 0 % 1008,9 hPa 0,0 l/m 2,2 km/h (1 Bft) 0 min 0,0 km/h (0 Bft)
17.07.2009 19:38 25,2 C 22,3 C 1,1 UV-I 0,0 C 46 % 53 % 0 % 1008,7 hPa 0,0 l/m 2,4 km/h (1 Bft) 0 min 8,2 km/h (2 Bft)
17.07.2009 19:40 25,2 C 22,3 C 1,1 UV-I 0,0 C 46 % 52 % 0 % 1008,7 hPa 0,0 l/m 1,9 km/h (1 Bft) 0 min 3,6 km/h (1 Bft)
17.07.2009 19:42 25,2 C 22,3 C 1,1 UV-I 0,0 C 46 % 53 % 0 % 1008,7 hPa 0,0 l/m 1,7 km/h (1 Bft) 0 min 4,6 km/h (1 Bft)
17.07.2009 19:44 25,3 C 22,2 C 1,3 UV-I 0,0 C 46 % 52 % 0 % 1008,7 hPa 0,0 l/m 2,2 km/h (1 Bft) 0 min 13,7 km/h (3 Bft)
17.07.2009 19:46 25,2 C 22,3 C 1,3 UV-I 0,0 C 46 % 51 % 0 % 1008,7 hPa 0,0 l/m 2,2 km/h (1 Bft) 0 min 13,7 km/h (3 Bft)
17.07.2009 19:48 25,2 C 22,3 C 1,4 UV-I 0,0 C 46 % 51 % 0 % 1008,7 hPa 0,0 l/m 2,6 km/h (1 Bft) 0 min 14,4 km/h (3 Bft)
17.07.2009 19:50 25,2 C 22,3 C 1,4 UV-I 0,0 C 46 % 51 % 0 % 1008,7 hPa 0,0 l/m 2,9 km/h (1 Bft) 0 min 6,3 km/h (2 Bft)
17.07.2009 19:52 25,2 C 22,1 C 1,3 UV-I 0,0 C 46 % 51 % 0 % 1008,7 hPa 0,0 l/m 3,1 km/h (1 Bft) 0 min 4,1 km/h (1 Bft)
17.07.2009 19:56 25,2 C 22,1 C 1,3 UV-I 0,0 C 46 % 51 % 0 % 1008,7 hPa 0,0 l/m 3,8 km/h (1 Bft) 0 min 7,7 km/h (2 Bft)
17.07.2009 19:58 25,2 C 22,1 C 1,1 UV-I 0,0 C 46 % 50 % 0 % 1008,4 hPa 0,0 l/m 3,6 km/h (1 Bft) 0 min 3,6 km/h (1 Bft)
17.07.2009 20:00 25,2 C 22,1 C 1,1 UV-I 0,0 C 46 % 50 % 0 % 1008,4 hPa 0,0 l/m 3,8 km/h (1 Bft) 0 min 4,3 km/h (1 Bft)
17.07.2009 20:02 25,2 C 22,1 C 1,1 UV-I 0,0 C 46 % 49 % 0 % 1008,4 hPa 0,0 l/m 4,1 km/h (1 Bft) 0 min 9,4 km/h (2 Bft)
17.07.2009 20:06 25,1 C 22,1 C 0,8 UV-I 0,0 C 45 % 50 % 0 % 1008,4 hPa 0,0 l/m 4,1 km/h (1 Bft) 0 min 5,1 km/h (1 Bft)
17.07.2009 20:08 25,1 C 22,0 C 0,8 UV-I 0,0 C 45 % 50 % 0 % 1008,4 hPa 0,0 l/m 4,3 km/h (1 Bft) 0 min 4,3 km/h (1 Bft)
17.07.2009 20:10 25,1 C 22,0 C 0,8 UV-I 0,0 C 45 % 49 % 0 % 1008,4 hPa 0,0 l/m 3,8 km/h (1 Bft) 0 min 0,0 km/h (0 Bft)
17.07.2009 20:12 25,1 C 21,9 C 0,8 UV-I 0,0 C 45 % 49 % 0 % 1008,4 hPa 0,0 l/m 3,6 km/h (1 Bft) 0 min 11,8 km/h (2 Bft)
17.07.2009 20:14 25,1 C 21,8 C 0,8 UV-I 0,0 C 45 % 49 % 0 % 1008,4 hPa 0,0 l/m 3,6 km/h (1 Bft) 0 min 4,8 km/h (1 Bft)
17.07.2009 20:16 25,1 C 21,9 C 0,8 UV-I 0,0 C 45 % 49 % 0 % 1008,4 hPa 0,0 l/m 2,9 km/h (1 Bft) 0 min 0,0 km/h (0 Bft)
17.07.2009 20:18 25,0 C 21,9 C 0,7 UV-I 0,0 C 45 % 49 % 0 % 1008,2 hPa 0,0 l/m 2,4 km/h (1 Bft) 0 min 4,3 km/h (1 Bft)
17.07.2009 20:20 25,0 C 21,9 C 0,7 UV-I 0,0 C 45 % 50 % 0 % 1008,2 hPa 0,0 l/m 2,6 km/h (1 Bft) 0 min 5,5 km/h (1 Bft)
17.07.2009 20:24 25,0 C 21,8 C 0,7 UV-I 0,0 C 45 % 50 % 0 % 1008,2 hPa 0,0 l/m 2,4 km/h (1 Bft) 0 min 4,3 km/h (1 Bft)
17.07.2009 20:26 25,0 C 21,8 C 0,6 UV-I 0,0 C 45 % 50 % 0 % 1008,2 hPa 0,0 l/m 2,2 km/h (1 Bft) 0 min 0,0 km/h (0 Bft)
17.07.2009 20:28 25,0 C 21,7 C 0,6 UV-I 0,0 C 45 % 50 % 0 % 1008,2 hPa 0,0 l/m 2,6 km/h (1 Bft) 0 min 3,1 km/h (1 Bft)
17.07.2009 20:32 24,9 C 21,7 C 0,6 UV-I 0,0 C 45 % 50 % 0 % 1008,2 hPa 0,0 l/m 2,2 km/h (1 Bft) 0 min 6,7 km/h (2 Bft)
17.07.2009 20:34 24,9 C 21,7 C 0,6 UV-I 0,0 C 45 % 50 % 0 % 1008,2 hPa 0,0 l/m 1,9 km/h (1 Bft) 0 min 5,1 km/h (1 Bft)
17.07.2009 20:36 24,9 C 21,7 C 0,6 UV-I 0,0 C 45 % 50 % 0 % 1008,2 hPa 0,0 l/m 1,9 km/h (1 Bft) 0 min 5,1 km/h (1 Bft)
17.07.2009 20:38 24,9 C 21,6 C 0,5 UV-I 0,0 C 45 % 50 % 0 % 1008,6 hPa 0,0 l/m 2,2 km/h (1 Bft) 0 min 0,0 km/h (0 Bft)
17.07.2009 20:40 24,9 C 21,7 C 0,5 UV-I 0,0 C 45 % 50 % 0 % 1008,6 hPa 0,0 l/m 1,9 km/h (1 Bft) 0 min 0,0 km/h (0 Bft)
17.07.2009 20:42 24,9 C 21,6 C 0,5 UV-I 0,0 C 45 % 50 % 0 % 1008,6 hPa 0,0 l/m 1,9 km/h (1 Bft) 0 min 3,4 km/h (1 Bft)
17.07.2009 20:46 24,9 C 21,6 C 0,4 UV-I 0,0 C 45 % 49 % 0 % 1008,6 hPa 0,0 l/m 2,2 km/h (1 Bft) 0 min 6,3 km/h (2 Bft)
17.07.2009 20:48 24,8 C 21,7 C 0,4 UV-I 0,0 C 45 % 50 % 0 % 1008,6 hPa 0,0 l/m 1,9 km/h (1 Bft) 0 min 5,5 km/h (1 Bft)
17.07.2009 20:50 24,8 C 21,6 C 0,4 UV-I 0,0 C 45 % 50 % 0 % 1008,6 hPa 0,0 l/m 2,4 km/h (1 Bft) 0 min 5,8 km/h (2 Bft)
17.07.2009 20:52 24,8 C 21,6 C 0,4 UV-I 0,0 C 45 % 50 % 0 % 1008,6 hPa 0,0 l/m 2,9 km/h (1 Bft) 0 min 3,6 km/h (1 Bft)
17.07.2009 20:54 24,8 C 21,5 C 0,4 UV-I 0,0 C 45 % 50 % 0 % 1008,6 hPa 0,0 l/m 3,1 km/h (1 Bft) 0 min 4,6 km/h (1 Bft)
17.07.2009 20:56 24,8 C 21,6 C 0,4 UV-I 0,0 C 45 % 50 % 0 % 1008,6 hPa 0,0 l/m 3,1 km/h (1 Bft) 0 min 4,6 km/h (1 Bft)
17.07.2009 20:58 24,8 C 21,6 C 0,3 UV-I 0,0 C 45 % 50 % 0 % 1008,8 hPa 0,0 l/m 2,9 km/h (1 Bft) 0 min 3,4 km/h (1 Bft)
17.07.2009 21:00 24,8 C 21,5 C 0,3 UV-I 0,0 C 45 % 50 % 0 % 1008,8 hPa 0,0 l/m 2,6 km/h (1 Bft) 0 min 7,9 km/h (2 Bft)
17.07.2009 21:02 24,8 C 21,5 C 0,3 UV-I 0,0 C 45 % 50 % 0 % 1008,8 hPa 0,0 l/m 2,6 km/h (1 Bft) 0 min 0,0 km/h (0 Bft)
17.07.2009 21:04 24,8 C 21,5 C 0,2 UV-I 0,0 C 45 % 50 % 0 % 1008,8 hPa 0,0 l/m 2,4 km/h (1 Bft) 0 min 2,6 km/h (1 Bft)
17.07.2009 21:06 24,8 C 21,5 C 0,1 UV-I 0,0 C 45 % 50 % 0 % 1008,8 hPa 0,0 l/m 2,6 km/h (1 Bft) 0 min 3,4 km/h (1 Bft)
17.07.2009 21:10 24,7 C 21,5 C 0,1 UV-I 0,0 C 45 % 50 % 0 % 1008,8 hPa 0,0 l/m 3,1 km/h (1 Bft) 0 min 13,2 km/h (3 Bft)
17.07.2009 21:12 24,7 C 21,4 C 0,1 UV-I 0,0 C 45 % 50 % 0 % 1008,8 hPa 0,0 l/m 2,6 km/h (1 Bft) 0 min 2,9 km/h (1 Bft)
17.07.2009 21:14 24,7 C 21,3 C 0,1 UV-I 0,0 C 45 % 50 % 0 % 1008,8 hPa 0,0 l/m 2,6 km/h (1 Bft) 0 min 0,0 km/h (0 Bft)
17.07.2009 21:16 24,7 C 21,3 C 0,1 UV-I 0,0 C 45 % 50 % 0 % 1008,8 hPa 0,0 l/m 2,9 km/h (1 Bft) 0 min 0,0 km/h (0 Bft)
17.07.2009 21:18 24,7 C 21,2 C 0,0 UV-I 0,0 C 45 % 50 % 0 % 1008,6 hPa 0,0 l/m 2,9 km/h (1 Bft) 0 min 0,0 km/h (0 Bft)
17.07.2009 21:19 24,7 C 21,2 C 0,0 UV-I 0,0 C 45 % 50 % 0 % 1008,6 hPa 0,0 l/m 2,2 km/h (1 Bft) 0 min 3,1 km/h (1 Bft)
17.07.2009 21:23 24,7 C 21,3 C 0,0 UV-I 0,0 C 45 % 51 % 0 % 1008,6 hPa 0,0 l/m 1,7 km/h (1 Bft) 0 min 3,4 km/h (1 Bft)
17.07.2009 21:24 24,6 C 21,2 C 0,0 UV-I 0,0 C 45 % 51 % 0 % 1008,6 hPa 0,0 l/m 1,7 km/h (1 Bft) 0 min 3,4 km/h (1 Bft)
17.07.2009 21:26 24,6 C 21,2 C 0,0 UV-I 0,0 C 45 % 51 % 0 % 1008,6 hPa 0,0 l/m 1,4 km/h (1 Bft) 0 min 0,0 km/h (0 Bft)
17.07.2009 21:28 24,6 C 21,0 C 0,0 UV-I 0,0 C 45 % 51 % 0 % 1008,6 hPa 0,0 l/m 1,4 km/h (1 Bft) 0 min 0,0 km/h (0 Bft)
17.07.2009 21:30 24,6 C 21,0 C 0,0 UV-I 0,0 C 45 % 51 % 0 % 1008,6 hPa 0,0 l/m 1,7 km/h (1 Bft) 0 min 0,0 km/h (0 Bft)
17.07.2009 21:32 24,6 C 21,0 C 0,0 UV-I 0,0 C 45 % 52 % 0 % 1008,6 hPa 0,0 l/m 1,7 km/h (1 Bft) 0 min 2,6 km/h (1 Bft)
17.07.2009 21:34 24,6 C 21,0 C 0,0 UV-I 0,0 C 45 % 52 % 0 % 1008,6 hPa 0,0 l/m 1,2 km/h (1 Bft) 0 min 0,0 km/h (0 Bft)
17.07.2009 21:36 24,6 C 20,9 C 0,0 UV-I 0,0 C 45 % 52 % 0 % 1008,6 hPa 0,0 l/m 1,0 km/h (0 Bft) 0 min 0,0 km/h (0 Bft)
17.07.2009 21:38 24,5 C 20,9 C 0,0 UV-I 0,0 C 45 % 52 % 0 % 1008,2 hPa 0,0 l/m 1,0 km/h (0 Bft) 0 min 0,0 km/h (0 Bft)
17.07.2009 21:40 24,5 C 20,8 C 0,0 UV-I 0,0 C 45 % 52 % 0 % 1008,2 hPa 0,0 l/m 0,5 km/h (0 Bft) 0 min 0,0 km/h (0 Bft)
17.07.2009 21:42 24,5 C 20,8 C 0,0 UV-I 0,0 C 45 % 52 % 0 % 1008,2 hPa 0,0 l/m 0,5 km/h (0 Bft) 0 min 0,0 km/h (0 Bft)
17.07.2009 21:44 24,5 C 20,7 C 0,0 UV-I 0,0 C 45 % 53 % 0 % 1008,2 hPa 0,0 l/m 0,5 km/h (0 Bft) 0 min 0,0 km/h (0 Bft)
17.07.2009 21:46 24,5 C 20,6 C 0,0 UV-I 0,0 C 45 % 53 % 0 % 1008,2 hPa 0,0 l/m 0,2 km/h (0 Bft) 0 min 0,0 km/h (0 Bft)
17.07.2009 21:48 24,5 C 20,7 C 0,0 UV-I 0,0 C 45 % 53 % 0 % 1008,2 hPa 0,0 l/m 0,2 km/h (0 Bft) 0 min 0,0 km/h (0 Bft)
17.07.2009 21:50 24,4 C 20,6 C 0,0 UV-I 0,0 C 45 % 53 % 0 % 1008,2 hPa 0,0 l/m 0,2 km/h (0 Bft) 0 min 0,0 km/h (0 Bft)
17.07.2009 21:52 24,4 C 20,5 C 0,0 UV-I 0,0 C 45 % 54 % 0 % 1008,2 hPa 0,0 l/m 0,2 km/h (0 Bft) 0 min 2,9 km/h (1 Bft)
17.07.2009 21:54 24,4 C 20,4 C 0,0 UV-I 0,0 C 46 % 54 % 0 % 1008,2 hPa 0,0 l/m 0,2 km/h (0 Bft) 0 min 0,0 km/h (0 Bft)
17.07.2009 21:56 24,4 C 20,5 C 0,0 UV-I 0,0 C 46 % 54 % 0 % 1008,2 hPa 0,0 l/m 0,0 km/h (0 Bft) 0 min 0,0 km/h (0 Bft)
17.07.2009 21:58 24,4 C 20,4 C 0,0 UV-I 0,0 C 46 % 54 % 0 % 1008,6 hPa 0,0 l/m 0,0 km/h (0 Bft) 0 min 0,0 km/h (0 Bft)
17.07.2009 22:00 24,4 C 20,3 C 0,0 UV-I 0,0 C 46 % 54 % 0 % 1008,6 hPa 0,0 l/m 0,2 km/h (0 Bft) 0 min 0,0 km/h (0 Bft)
17.07.2009 22:02 24,2 C 20,2 C 0,0 UV-I 0,0 C 46 % 54 % 0 % 1008,6 hPa 0,0 l/m 0,2 km/h (0 Bft) 0 min 0,0 km/h (0 Bft)
17.07.2009 22:04 24,2 C 20,3 C 0,0 UV-I 0,0 C 46 % 55 % 0 % 1008,6 hPa 0,0 l/m 0,2 km/h (0 Bft) 0 min 0,0 km/h (0 Bft)
17.07.2009 22:06 24,3 C 20,1 C 0,0 UV-I 0,0 C 46 % 55 % 0 % 1008,6 hPa 0,0 l/m 0,2 km/h (0 Bft) 0 min 0,0 km/h (0 Bft)
17.07.2009 22:08 24,3 C 20,1 C 0,0 UV-I 0,0 C 46 % 55 % 0 % 1008,6 hPa 0,0 l/m 0,2 km/h (0 Bft) 0 min 0,0 km/h (0 Bft)
17.07.2009 22:10 24,3 C 20,0 C 0,0 UV-I 0,0 C 46 % 55 % 0 % 1008,6 hPa 0,0 l/m 0,2 km/h (0 Bft) 0 min 0,0 km/h (0 Bft)
17.07.2009 22:12 24,3 C 20,0 C 0,0 UV-I 0,0 C 46 % 55 % 0 % 1008,6 hPa 0,0 l/m 0,7 km/h (0 Bft) 0 min 3,1 km/h (1 Bft)
17.07.2009 22:14 24,2 C 20,0 C 0,0 UV-I 0,0 C 46 % 56 % 0 % 1008,6 hPa 0,0 l/m 0,7 km/h (0 Bft) 0 min 0,0 km/h (0 Bft)
17.07.2009 22:16 24,2 C 19,9 C 0,0 UV-I 0,0 C 46 % 56 % 0 % 1008,6 hPa 0,0 l/m 1,0 km/h (0 Bft) 0 min 0,0 km/h (0 Bft)
17.07.2009 22:18 24,2 C 19,9 C 0,0 UV-I 0,0 C 46 % 56 % 0 % 1008,8 hPa 0,0 l/m 1,0 km/h (0 Bft) 0 min 3,1 km/h (1 Bft)
17.07.2009 22:20 24,2 C 19,8 C 0,0 UV-I 0,0 C 46 % 56 % 0 % 1008,8 hPa 0,0 l/m 1,0 km/h (0 Bft) 0 min 0,0 km/h (0 Bft)
17.07.2009 22:22 24,1 C 19,9 C 0,0 UV-I 0,0 C 46 % 56 % 0 % 1008,8 hPa 0,0 l/m 1,0 km/h (0 Bft) 0 min 3,4 km/h (1 Bft)
17.07.2009 22:24 24,1 C 19,8 C 0,0 UV-I 0,0 C 46 % 56 % 0 % 1008,8 hPa 0,0 l/m 0,7 km/h (0 Bft) 0 min 0,0 km/h (0 Bft)
17.07.2009 22:26 24,1 C 19,7 C 0,0 UV-I 0,0 C 46 % 56 % 0 % 1008,8 hPa 0,0 l/m 1,2 km/h (1 Bft) 0 min 7,0 km/h (2 Bft)
17.07.2009 22:28 24,1 C 19,7 C 0,0 UV-I 0,0 C 46 % 56 % 0 % 1008,8 hPa 0,0 l/m 1,2 km/h (1 Bft) 0 min 0,0 km/h (0 Bft)
17.07.2009 22:30 24,1 C 19,6 C 0,0 UV-I 0,0 C 46 % 56 % 0 % 1008,8 hPa 0,0 l/m 1,2 km/h (1 Bft) 0 min 0,0 km/h (0 Bft)
17.07.2009 22:32 24,0 C 19,6 C 0,0 UV-I 0,0 C 46 % 56 % 0 % 1008,8 hPa 0,0 l/m 1,0 km/h (0 Bft) 0 min 0,0 km/h (0 Bft)
17.07.2009 22:34 24,0 C 19,7 C 0,0 UV-I 0,0 C 46 % 56 % 0 % 1008,8 hPa 0,0 l/m 1,0 km/h (0 Bft) 0 min 3,1 km/h (1 Bft)
17.07.2009 22:36 24,0 C 19,6 C 0,0 UV-I 0,0 C 46 % 56 % 0 % 1008,8 hPa 0,0 l/m 0,7 km/h (0 Bft) 0 min 0,0 km/h (0 Bft)
17.07.2009 22:38 24,0 C 19,5 C 0,0 UV-I 0,0 C 47 % 56 % 0 % 1008,5 hPa 0,0 l/m 0,5 km/h (0 Bft) 0 min 2,4 km/h (1 Bft)
17.07.2009 22:40 24,0 C 19,5 C 0,0 UV-I 0,0 C 46 % 57 % 0 % 1008,5 hPa 0,0 l/m 0,5 km/h (0 Bft) 0 min 0,0 km/h (0 Bft)
17.07.2009 22:42 24,0 C 19,5 C 0,0 UV-I 0,0 C 47 % 57 % 0 % 1008,5 hPa 0,0 l/m 0,5 km/h (0 Bft) 0 min 0,0 km/h (0 Bft)
17.07.2009 22:44 24,0 C 19,5 C 0,0 UV-I 0,0 C 47 % 57 % 0 % 1008,5 hPa 0,0 l/m 0,5 km/h (0 Bft) 0 min 0,0 km/h (0 Bft)
17.07.2009 22:46 24,0 C 19,5 C 0,0 UV-I 0,0 C 47 % 57 % 0 % 1008,5 hPa 0,0 l/m 0,2 km/h (0 Bft) 0 min 0,0 km/h (0 Bft)
17.07.2009 22:48 23,9 C 19,4 C 0,0 UV-I 0,0 C 46 % 57 % 0 % 1008,5 hPa 0,0 l/m 0,0 km/h (0 Bft) 0 min 0,0 km/h (0 Bft)
17.07.2009 22:50 23,9 C 19,3 C 0,0 UV-I 0,0 C 47 % 57 % 0 % 1008,5 hPa 0,0 l/m 0,2 km/h (0 Bft) 0 min 5,1 km/h (1 Bft)
17.07.2009 22:52 23,9 C 19,3 C 0,0 UV-I 0,0 C 47 % 57 % 0 % 1008,5 hPa 0,0 l/m 0,2 km/h (0 Bft) 0 min 0,0 km/h (0 Bft)
17.07.2009 22:54 23,9 C 19,2 C 0,0 UV-I 0,0 C 47 % 57 % 0 % 1008,5 hPa 0,0 l/m 0,5 km/h (0 Bft) 0 min 2,4 km/h (1 Bft)
17.07.2009 22:56 23,9 C 19,3 C 0,0 UV-I 0,0 C 47 % 57 % 0 % 1008,5 hPa 0,0 l/m 0,5 km/h (0 Bft) 0 min 0,0 km/h (0 Bft)
17.07.2009 22:58 23,9 C 19,2 C 0,0 UV-I 0,0 C 47 % 58 % 0 % 1008,2 hPa 0,0 l/m 0,5 km/h (0 Bft) 0 min 4,8 km/h (1 Bft)
17.07.2009 23:00 23,8 C 19,2 C 0,0 UV-I 0,0 C 47 % 58 % 0 % 1008,2 hPa 0,0 l/m 0,7 km/h (0 Bft) 0 min 0,0 km/h (0 Bft)
17.07.2009 23:02 23,8 C 19,1 C 0,0 UV-I 0,0 C 47 % 57 % 0 % 1008,2 hPa 0,0 l/m 0,7 km/h (0 Bft) 0 min 0,0 km/h (0 Bft)
17.07.2009 23:04 23,8 C 19,1 C 0,0 UV-I 0,0 C 47 % 57 % 0 % 1008,2 hPa 0,0 l/m 0,7 km/h (0 Bft) 0 min 0,0 km/h (0 Bft)
17.07.2009 23:06 23,8 C 19,1 C 0,0 UV-I 0,0 C 47 % 58 % 0 % 1008,2 hPa 0,0 l/m 1,0 km/h (0 Bft) 0 min 0,0 km/h (0 Bft)
17.07.2009 23:08 23,8 C 19,1 C 0,0 UV-I 0,0 C 47 % 57 % 0 % 1008,2 hPa 0,0 l/m 1,0 km/h (0 Bft) 0 min 3,8 km/h (1 Bft)
17.07.2009 23:10 23,8 C 19,1 C 0,0 UV-I 0,0 C 47 % 58 % 0 % 1008,2 hPa 0,0 l/m 0,7 km/h (0 Bft) 0 min 0,0 km/h (0 Bft)
17.07.2009 23:12 23,8 C 19,0 C 0,0 UV-I 0,0 C 47 % 58 % 0 % 1008,2 hPa 0,0 l/m 1,2 km/h (1 Bft) 0 min 4,1 km/h (1 Bft)
17.07.2009 23:14 23,7 C 18,9 C 0,0 UV-I 0,0 C 47 % 58 % 0 % 1008,2 hPa 0,0 l/m 1,7 km/h (1 Bft) 0 min 5,8 km/h (2 Bft)
17.07.2009 23:16 23,7 C 18,9 C 0,0 UV-I 0,0 C 47 % 58 % 0 % 1008,2 hPa 0,0 l/m 1,9 km/h (1 Bft) 0 min 5,1 km/h (1 Bft)
17.07.2009 23:18 23,7 C 18,9 C 0,0 UV-I 0,0 C 47 % 58 % 0 % 1009,1 hPa 0,0 l/m 2,2 km/h (1 Bft) 0 min 0,0 km/h (0 Bft)
17.07.2009 23:20 23,7 C 18,9 C 0,0 UV-I 0,0 C 47 % 58 % 0 % 1009,1 hPa 0,0 l/m 1,9 km/h (1 Bft) 0 min 3,6 km/h (1 Bft)
17.07.2009 23:22 23,6 C 18,9 C 0,0 UV-I 0,0 C 47 % 58 % 0 % 1009,1 hPa 0,0 l/m 2,2 km/h (1 Bft) 0 min 5,8 km/h (2 Bft)
17.07.2009 23:24 23,6 C 18,9 C 0,0 UV-I 0,0 C 47 % 58 % 0 % 1009,1 hPa 0,0 l/m 2,9 km/h (1 Bft) 0 min 6,7 km/h (2 Bft)
17.07.2009 23:26 23,6 C 18,9 C 0,0 UV-I 0,0 C 47 % 58 % 0 % 1009,1 hPa 0,0 l/m 3,1 km/h (1 Bft) 0 min 8,2 km/h (2 Bft)
17.07.2009 23:28 23,6 C 18,9 C 0,0 UV-I 0,0 C 47 % 57 % 0 % 1009,1 hPa 0,0 l/m 3,6 km/h (1 Bft) 0 min 14,7 km/h (3 Bft)
17.07.2009 23:30 23,6 C 18,9 C 0,0 UV-I 0,0 C 47 % 57 % 0 % 1009,1 hPa 0,0 l/m 5,3 km/h (1 Bft) 0 min 16,1 km/h (3 Bft)
17.07.2009 23:32 23,6 C 18,9 C 0,0 UV-I 0,0 C 47 % 57 % 0 % 1009,1 hPa 0,0 l/m 6,3 km/h (2 Bft) 0 min 13,0 km/h (3 Bft)
17.07.2009 23:34 23,6 C 18,9 C 0,0 UV-I 0,0 C 47 % 57 % 0 % 1009,1 hPa 0,0 l/m 6,5 km/h (2 Bft) 0 min 8,2 km/h (2 Bft)
17.07.2009 23:36 23,5 C 18,8 C 0,0 UV-I 0,0 C 46 % 57 % 0 % 1009,1 hPa 0,0 l/m 6,3 km/h (2 Bft) 0 min 3,4 km/h (1 Bft)
17.07.2009 23:38 23,5 C 18,9 C 0,0 UV-I 0,0 C 46 % 57 % 0 % 1009,1 hPa 0,0 l/m 6,3 km/h (2 Bft) 0 min 8,2 km/h (2 Bft)
17.07.2009 23:40 23,5 C 18,9 C 0,0 UV-I 0,0 C 47 % 57 % 0 % 1009,1 hPa 0,0 l/m 5,8 km/h (2 Bft) 0 min 14,0 km/h (3 Bft)
17.07.2009 23:42 23,5 C 18,8 C 0,0 UV-I 0,0 C 47 % 58 % 0 % 1009,1 hPa 0,0 l/m 6,0 km/h (2 Bft) 0 min 6,5 km/h (2 Bft)
17.07.2009 23:44 23,5 C 18,8 C 0,0 UV-I 0,0 C 46 % 58 % 0 % 1009,1 hPa 0,0 l/m 5,8 km/h (2 Bft) 0 min 15,9 km/h (3 Bft)
17.07.2009 23:46 23,4 C 18,7 C 0,0 UV-I 0,0 C 46 % 58 % 0 % 1009,1 hPa 0,0 l/m 5,8 km/h (2 Bft) 0 min 6,7 km/h (2 Bft)
17.07.2009 23:48 23,4 C 18,7 C 0,0 UV-I 0,0 C 47 % 58 % 0 % 1009,1 hPa 0,0 l/m 6,5 km/h (2 Bft) 0 min 9,9 km/h (2 Bft)
17.07.2009 23:50 23,4 C 18,7 C 0,0 UV-I 0,0 C 47 % 58 % 0 % 1009,1 hPa 0,0 l/m 6,7 km/h (2 Bft) 0 min 3,8 km/h (1 Bft)
17.07.2009 23:52 23,4 C 18,7 C 0,0 UV-I 0,0 C 47 % 58 % 0 % 1009,1 hPa 0,0 l/m 6,5 km/h (2 Bft) 0 min 2,9 km/h (1 Bft)
17.07.2009 23:54 23,4 C 18,7 C 0,0 UV-I 0,0 C 47 % 58 % 0 % 1009,1 hPa 0,0 l/m 6,0 km/h (2 Bft) 0 min 5,5 km/h (1 Bft)
17.07.2009 23:56 23,4 C 18,7 C 0,0 UV-I 0,0 C 47 % 58 % 0 % 1009,1 hPa 0,0 l/m 5,1 km/h (1 Bft) 0 min 3,8 km/h (1 Bft)
17.07.2009 23:58 23,2 C 18,6 C 0,0 UV-I 0,0 C 47 % 58 % 0 % 1009,2 hPa 0,0 l/m 4,3 km/h (1 Bft) 0 min 2,6 km/h (1 Bft)
_ Min-Zeit 23:58 23:58 00:00 00:00 16:46 16:18 00:00 20:18 - 00:00 - 00:00
Minimum _ 23,2 C 18,6 C 0,0 UV-I 0,0 C 45 % 43 % 0 % 1008,2 hPa - 0,0 km/h (0 Bft) - 0,0 km/h (0 Bft)
_ Max-Zeit 17:22 17:08 11:18 15:56 10:14 10:10 11:24 00:00 08:30 14:12 10:32 16:18
Maximum _ 26,4 C 25,2 C 11,7 UV-I 4,5 C 63 % 89 % 100 % 1014,9 hPa 0,2 l/m 10,8 km/h
N-NO (2 Bft)
2 min 27,9 km/h
O-NO (4 Bft)
Durchschnitt _ 24,4 C 21,4 C 1,9 UV-I 0,6 C 52 % 62 % 17 % 1010,0 hPa #1,7 l/m 3,3 km/h (1 Bft) #1:24 h 5,2 km/h (1 Bft)
© 2012 W. Hausmann